| time (UTC) | temp F | wind direction | speed MPH | gust MPH | rain 1hr in | rain 24hr in | rain mn in | humidity % | barometer mb |
| 20260507001204 | 58 | 30 | 1.0 | 5.0 | 0.00 | 0.21 | 0.21 | 51 | 1016.9 |
| 20260507001104 | 58 | 29 | 1.0 | 5.0 | 0.00 | 0.21 | 0.21 | 50 | 1016.9 |
| 20260507001004 | 58 | 42 | 1.0 | 5.0 | 0.00 | 0.21 | 0.21 | 51 | 1017.0 |
| 20260507000904 | 58 | 43 | 1.0 | 5.0 | 0.00 | 0.21 | 0.21 | 51 | 1017.0 |
| 20260507000804 | 58 | 48 | 1.0 | 5.0 | 0.00 | 0.21 | 0.21 | 51 | 1017.0 |
| 20260507000705 | 58 | 43 | 1.0 | 5.0 | 0.00 | 0.21 | 0.21 | 51 | 1017.0 |
| 20260507000605 | 58 | 44 | 1.0 | 5.0 | 0.00 | 0.21 | 0.21 | 51 | 1017.0 |
| 20260507000505 | 58 | 40 | 2.0 | 6.0 | 0.00 | 0.21 | 0.21 | 51 | 1016.9 |
| 20260507000405 | 58 | 37 | 2.0 | 6.0 | 0.00 | 0.21 | 0.21 | 51 | 1016.9 |
| 20260507000306 | 58 | 20 | 2.0 | 6.0 | 0.00 | 0.21 | 0.21 | 50 | 1016.9 |
| 20260507000205 | 58 | 14 | 2.0 | 6.0 | 0.00 | 0.21 | 0.21 | 51 | 1016.8 |
| 20260507000105 | 58 | 9 | 3.0 | 6.0 | 0.00 | 0.21 | 0.21 | 50 | 1016.8 |
| 20260507000005 | 58 | 358 | 3.0 | 6.0 | 0.00 | 0.21 | 0.21 | 50 | 1016.8 |
| 20260506235904 | 58 | 347 | 3.0 | 8.0 | 0.00 | 0.21 | 0.21 | 49 | 1016.9 |
| 20260506235804 | 58 | 338 | 3.0 | 8.0 | 0.00 | 0.21 | 0.21 | 49 | 1016.9 |
| 20260506235704 | 58 | 335 | 3.0 | 8.0 | 0.00 | 0.21 | 0.21 | 49 | 1016.8 |
| 20260506235604 | 58 | 329 | 3.0 | 8.0 | 0.00 | 0.21 | 0.21 | 49 | 1016.9 |
| 20260506235504 | 58 | 327 | 3.0 | 8.0 | 0.00 | 0.21 | 0.21 | 50 | 1016.9 |
| 20260506235306 | 58 | 331 | 3.0 | 8.0 | 0.00 | 0.21 | 0.21 | 49 | 1016.9 |
| 20260506235204 | 58 | 332 | 3.0 | 8.0 | 0.00 | 0.21 | 0.21 | 49 | 1016.9 |
| 20260506235104 | 58 | 330 | 3.0 | 8.0 | 0.00 | 0.21 | 0.21 | 49 | 1016.9 |
| 20260506235004 | 58 | 333 | 3.0 | 8.0 | 0.00 | 0.21 | 0.21 | 49 | 1016.9 |
| 20260506234904 | 59 | 337 | 3.0 | 8.0 | 0.00 | 0.21 | 0.21 | 48 | 1016.9 |
| 20260506234705 | 59 | 339 | 3.0 | 9.0 | 0.00 | 0.21 | 0.21 | 50 | 1016.8 |
| 20260506234604 | 59 | 343 | 3.0 | 9.0 | 0.00 | 0.21 | 0.21 | 49 | 1016.8 |
| 20260506234505 | 59 | 342 | 3.0 | 9.0 | 0.00 | 0.21 | 0.21 | 49 | 1016.8 |
| 20260506234404 | 59 | 344 | 4.0 | 9.0 | 0.00 | 0.21 | 0.21 | 48 | 1016.8 |
| 20260506234304 | 59 | 344 | 4.0 | 9.0 | 0.00 | 0.21 | 0.21 | 47 | 1016.8 |
| 20260506234204 | 59 | 346 | 4.0 | 9.0 | 0.00 | 0.21 | 0.21 | 47 | 1016.8 |
| 20260506234105 | 59 | 354 | 3.0 | 9.0 | 0.00 | 0.21 | 0.21 | 47 | 1016.8 |
| 20260506234004 | 60 | 359 | 3.0 | 9.0 | 0.00 | 0.21 | 0.21 | 47 | 1016.8 |
| 20260506233904 | 60 | 4 | 3.0 | 9.0 | 0.00 | 0.21 | 0.21 | 47 | 1016.8 |
| 20260506233804 | 60 | 8 | 3.0 | 7.0 | 0.00 | 0.21 | 0.21 | 47 | 1016.8 |
| 20260506233705 | 60 | 16 | 3.0 | 7.0 | 0.00 | 0.21 | 0.21 | 47 | 1016.8 |
| 20260506233505 | 60 | 27 | 2.0 | 7.0 | 0.00 | 0.21 | 0.21 | 47 | 1016.8 |
| 20260506233405 | 60 | 31 | 2.0 | 7.0 | 0.00 | 0.21 | 0.21 | 49 | 1016.7 |
| 20260506233305 | 59 | 31 | 2.0 | 7.0 | 0.00 | 0.21 | 0.21 | 48 | 1016.7 |
| 20260506233105 | 59 | 13 | 2.0 | 7.0 | 0.00 | 0.21 | 0.21 | 48 | 1016.8 |
| 20260506233005 | 59 | 16 | 2.0 | 7.0 | 0.00 | 0.21 | 0.21 | 48 | 1016.8 |
| 20260506232905 | 59 | 28 | 2.0 | 7.0 | 0.00 | 0.21 | 0.21 | 49 | 1016.8 |
| 20260506232805 | 59 | 33 | 2.0 | 8.0 | 0.00 | 0.21 | 0.21 | 50 | 1016.7 |
| 20260506232705 | 59 | 34 | 2.0 | 8.0 | 0.00 | 0.21 | 0.21 | 49 | 1016.7 |
| 20260506232604 | 59 | 29 | 2.0 | 8.0 | 0.00 | 0.21 | 0.21 | 50 | 1016.7 |
| 20260506232504 | 59 | 29 | 3.0 | 8.0 | 0.00 | 0.21 | 0.21 | 49 | 1016.7 |
| 20260506232404 | 59 | 24 | 3.0 | 8.0 | 0.00 | 0.21 | 0.21 | 49 | 1016.7 |
| 20260506232306 | 58 | 22 | 3.0 | 8.0 | 0.00 | 0.21 | 0.21 | 49 | 1016.6 |
| 20260506232205 | 58 | 19 | 4.0 | 8.0 | 0.00 | 0.21 | 0.21 | 49 | 1016.6 |
| 20260506232104 | 58 | 18 | 4.0 | 8.0 | 0.00 | 0.21 | 0.21 | 49 | 1016.7 |
| 20260506232004 | 58 | 18 | 4.0 | 8.0 | 0.00 | 0.21 | 0.21 | 48 | 1016.7 |
| 20260506231904 | 58 | 13 | 4.0 | 8.0 | 0.00 | 0.21 | 0.21 | 48 | 1016.6 |
| 20260506231805 | 58 | 6 | 4.0 | 8.0 | 0.00 | 0.21 | 0.21 | 49 | 1016.6 |
| 20260506231605 | 59 | 9 | 4.0 | 8.0 | 0.00 | 0.21 | 0.21 | 48 | 1016.6 |
| 20260506231312 | 59 | 8 | 3.0 | 8.0 | 0.00 | 0.21 | 0.21 | 49 | 1016.6 |
| 20260506231205 | 59 | 11 | 3.0 | 8.0 | 0.00 | 0.21 | 0.21 | 48 | 1016.6 |
| 20260506231105 | 59 | 15 | 3.0 | 8.0 | 0.00 | 0.21 | 0.21 | 48 | 1016.6 |
| 20260506231005 | 59 | 20 | 3.0 | 8.0 | 0.00 | 0.21 | 0.21 | 48 | 1016.6 |
| 20260506230905 | 59 | 40 | 2.0 | 8.0 | 0.00 | 0.21 | 0.21 | 47 | 1016.6 |
| 20260506230705 | 60 | 64 | 2.0 | 7.0 | 0.00 | 0.21 | 0.21 | 48 | 1016.6 |
| 20260506230605 | 60 | 62 | 2.0 | 7.0 | 0.00 | 0.21 | 0.21 | 47 | 1016.6 |
| 20260506230505 | 60 | 63 | 2.0 | 7.0 | 0.00 | 0.21 | 0.21 | 47 | 1016.6 |
| 20260506230404 | 60 | 62 | 2.0 | 7.0 | 0.00 | 0.21 | 0.21 | 46 | 1016.6 |
| 20260506230304 | 60 | 49 | 2.0 | 7.0 | 0.00 | 0.21 | 0.21 | 46 | 1016.6 |
| 20260506230104 | 60 | 30 | 2.0 | 7.0 | 0.00 | 0.21 | 0.21 | 45 | 1016.6 |
| 20260506230005 | 60 | 19 | 2.0 | 6.0 | 0.00 | 0.21 | 0.21 | 46 | 1016.6 |
| 20260506225904 | 60 | 358 | 2.0 | 5.0 | 0.00 | 0.21 | 0.21 | 46 | 1016.6 |
| 20260506225805 | 60 | 1 | 2.0 | 5.0 | 0.00 | 0.21 | 0.21 | 47 | 1016.6 |
| 20260506225605 | 59 | 9 | 2.0 | 5.0 | 0.00 | 0.21 | 0.21 | 47 | 1016.6 |
| 20260506225505 | 60 | 358 | 2.0 | 5.0 | 0.00 | 0.21 | 0.21 | 46 | 1016.6 |
| 20260506225404 | 60 | 5 | 2.0 | 5.0 | 0.00 | 0.21 | 0.21 | 45 | 1016.6 |
| 20260506225306 | 60 | 30 | 2.0 | 8.0 | 0.00 | 0.21 | 0.21 | 46 | 1016.6 |
| 20260506225204 | 60 | 43 | 2.0 | 8.0 | 0.00 | 0.21 | 0.21 | 45 | 1016.6 |
| 20260506225104 | 60 | 51 | 2.0 | 8.0 | 0.00 | 0.21 | 0.21 | 46 | 1016.6 |
| 20260506225004 | 60 | 54 | 2.0 | 8.0 | 0.00 | 0.21 | 0.21 | 46 | 1016.6 |
| 20260506224904 | 60 | 54 | 2.0 | 8.0 | 0.00 | 0.21 | 0.21 | 45 | 1016.6 |
| 20260506224804 | 60 | 55 | 2.0 | 8.0 | 0.00 | 0.21 | 0.21 | 46 | 1016.6 |
| 20260506224705 | 60 | 49 | 2.0 | 8.0 | 0.00 | 0.21 | 0.21 | 45 | 1016.6 |
| 20260506224604 | 60 | 47 | 2.0 | 8.0 | 0.00 | 0.21 | 0.21 | 45 | 1016.5 |
| 20260506224504 | 60 | 52 | 2.0 | 8.0 | 0.00 | 0.21 | 0.21 | 45 | 1016.5 |
| 20260506224404 | 60 | 46 | 2.0 | 8.0 | 0.00 | 0.21 | 0.21 | 44 | 1016.5 |
| 20260506224304 | 60 | 47 | 2.0 | 5.0 | 0.00 | 0.21 | 0.21 | 44 | 1016.5 |
| 20260506224204 | 60 | 52 | 2.0 | 6.0 | 0.00 | 0.21 | 0.21 | 44 | 1016.5 |
| 20260506224104 | 60 | 56 | 2.0 | 9.0 | 0.00 | 0.21 | 0.21 | 44 | 1016.5 |
| 20260506224004 | 60 | 59 | 2.0 | 9.0 | 0.00 | 0.21 | 0.21 | 46 | 1016.5 |
| 20260506223904 | 60 | 46 | 2.0 | 9.0 | 0.00 | 0.21 | 0.21 | 46 | 1016.5 |
| 20260506223804 | 60 | 37 | 2.0 | 9.0 | 0.00 | 0.21 | 0.21 | 46 | 1016.4 |
| 20260506223604 | 60 | 42 | 2.0 | 9.0 | 0.00 | 0.21 | 0.21 | 46 | 1016.4 |
| 20260506223404 | 60 | 35 | 2.0 | 9.0 | 0.00 | 0.21 | 0.21 | 46 | 1016.4 |
| 20260506223304 | 60 | 34 | 3.0 | 9.0 | 0.00 | 0.21 | 0.21 | 45 | 1016.4 |
| 20260506223204 | 60 | 23 | 3.0 | 9.0 | 0.00 | 0.21 | 0.21 | 46 | 1016.4 |
| 20260506223104 | 60 | 18 | 3.0 | 8.0 | 0.00 | 0.21 | 0.21 | 45 | 1016.4 |
| 20260506223004 | 60 | 17 | 3.0 | 8.0 | 0.00 | 0.21 | 0.21 | 44 | 1016.4 |
| 20260506222904 | 60 | 26 | 3.0 | 8.0 | 0.00 | 0.21 | 0.21 | 45 | 1016.3 |
| 20260506222804 | 60 | 34 | 3.0 | 8.0 | 0.00 | 0.21 | 0.21 | 46 | 1016.4 |
| 20260506222704 | 60 | 40 | 3.0 | 8.0 | 0.00 | 0.21 | 0.21 | 46 | 1016.4 |
| 20260506222604 | 60 | 38 | 3.0 | 8.0 | 0.00 | 0.21 | 0.21 | 45 | 1016.4 |
| 20260506222306 | 60 | 55 | 2.0 | 7.0 | 0.00 | 0.21 | 0.21 | 45 | 1016.4 |
| 20260506222204 | 60 | 67 | 2.0 | 6.0 | 0.00 | 0.21 | 0.21 | 46 | 1016.4 |
| 20260506222004 | 60 | 80 | 2.0 | 6.0 | 0.00 | 0.21 | 0.21 | 45 | 1016.4 |
| 20260506221904 | 60 | 80 | 2.0 | 6.0 | 0.00 | 0.21 | 0.21 | 44 | 1016.4 |
| 20260506221804 | 60 | 77 | 2.0 | 5.0 | 0.00 | 0.21 | 0.21 | 45 | 1016.4 |
| 20260506221705 | 60 | 76 | 2.0 | 6.0 | 0.00 | 0.21 | 0.21 | 46 | 1016.4 |
| 20260506221604 | 60 | 73 | 2.0 | 6.0 | 0.00 | 0.21 | 0.21 | 46 | 1016.4 |
| 20260506221504 | 60 | 68 | 2.0 | 6.0 | 0.00 | 0.21 | 0.21 | 47 | 1016.4 |
| 20260506221404 | 60 | 66 | 2.0 | 6.0 | 0.00 | 0.21 | 0.21 | 46 | 1016.4 |
| 20260506221304 | 60 | 65 | 2.0 | 6.0 | 0.00 | 0.21 | 0.21 | 45 | 1016.4 |
| 20260506221204 | 60 | 65 | 2.0 | 6.0 | 0.00 | 0.21 | 0.21 | 45 | 1016.4 |
| 20260506221104 | 60 | 65 | 2.0 | 6.0 | 0.00 | 0.21 | 0.21 | 45 | 1016.4 |
| 20260506220904 | 60 | 46 | 2.0 | 6.0 | 0.00 | 0.21 | 0.21 | 46 | 1016.3 |
| 20260506220804 | 60 | 41 | 2.0 | 6.0 | 0.00 | 0.21 | 0.21 | 45 | 1016.4 |
| 20260506220704 | 60 | 31 | 2.0 | 7.0 | 0.00 | 0.21 | 0.21 | 46 | 1016.3 |
| 20260506220504 | 60 | 31 | 2.0 | 7.0 | 0.00 | 0.21 | 0.21 | 46 | 1016.3 |
| 20260506220404 | 60 | 32 | 2.0 | 7.0 | 0.00 | 0.21 | 0.21 | 46 | 1016.4 |
| 20260506220304 | 60 | 36 | 2.0 | 7.0 | 0.00 | 0.21 | 0.21 | 46 | 1016.4 |
| 20260506220204 | 59 | 39 | 3.0 | 7.0 | 0.00 | 0.21 | 0.21 | 45 | 1016.4 |
| 20260506220104 | 60 | 38 | 3.0 | 7.0 | 0.00 | 0.21 | 0.21 | 46 | 1016.4 |
| 20260506220004 | 60 | 46 | 3.0 | 11.0 | 0.00 | 0.21 | 0.21 | 45 | 1016.4 |
| 20260506215904 | 60 | 50 | 3.0 | 11.0 | 0.00 | 0.21 | 0.21 | 45 | 1016.4 |
| 20260506215704 | 60 | 62 | 3.0 | 11.0 | 0.00 | 0.21 | 0.21 | 46 | 1016.4 |
| 20260506215604 | 60 | 60 | 3.0 | 11.0 | 0.00 | 0.21 | 0.21 | 47 | 1016.4 |
| 20260506215504 | 60 | 61 | 3.0 | 11.0 | 0.00 | 0.21 | 0.21 | 47 | 1016.4 |
| 20260506215306 | 60 | 61 | 3.0 | 11.0 | 0.00 | 0.21 | 0.21 | 46 | 1016.5 |
| 20260506215104 | 60 | 70 | 3.0 | 11.0 | 0.00 | 0.21 | 0.21 | 47 | 1016.5 |
| 20260506215006 | 60 | 72 | 3.0 | 8.0 | 0.00 | 0.21 | 0.21 | 46 | 1016.5 |
| 20260506214904 | 60 | 68 | 3.0 | 8.0 | 0.00 | 0.21 | 0.21 | 47 | 1016.6 |
| 20260506214804 | 60 | 60 | 2.0 | 8.0 | 0.00 | 0.21 | 0.21 | 47 | 1016.6 |
| 20260506214704 | 60 | 53 | 3.0 | 8.0 | 0.00 | 0.21 | 0.21 | 47 | 1016.6 |
| 20260506214604 | 59 | 41 | 3.0 | 8.0 | 0.00 | 0.21 | 0.21 | 47 | 1016.5 |
| 20260506214505 | 59 | 32 | 3.0 | 8.0 | 0.00 | 0.21 | 0.21 | 46 | 1016.6 |
| 20260506214404 | 59 | 37 | 3.0 | 8.0 | 0.00 | 0.21 | 0.21 | 48 | 1016.6 |
| 20260506214204 | 59 | 359 | 3.0 | 6.0 | 0.00 | 0.21 | 0.21 | 47 | 1016.6 |
| 20260506214104 | 59 | 350 | 3.0 | 6.0 | 0.00 | 0.21 | 0.21 | 47 | 1016.6 |
| 20260506213904 | 60 | 347 | 3.0 | 6.0 | 0.00 | 0.21 | 0.21 | 47 | 1016.6 |
| 20260506213704 | 60 | 348 | 3.0 | 6.0 | 0.00 | 0.21 | 0.21 | 48 | 1016.6 |
| 20260506213604 | 60 | 354 | 3.0 | 7.0 | 0.00 | 0.21 | 0.21 | 46 | 1016.6 |
| 20260506213404 | 60 | 353 | 4.0 | 7.0 | 0.00 | 0.21 | 0.21 | 46 | 1016.7 |
| 20260506213304 | 60 | 348 | 4.0 | 7.0 | 0.00 | 0.21 | 0.21 | 45 | 1016.7 |
| 20260506213204 | 60 | 345 | 4.0 | 8.0 | 0.00 | 0.21 | 0.21 | 46 | 1016.6 |
| 20260506213104 | 60 | 342 | 4.0 | 8.0 | 0.00 | 0.21 | 0.21 | 46 | 1016.7 |
| 20260506212904 | 60 | 347 | 4.0 | 8.0 | 0.00 | 0.21 | 0.21 | 47 | 1016.7 |
| 20260506212804 | 60 | 356 | 4.0 | 9.0 | 0.00 | 0.21 | 0.21 | 46 | 1016.7 |
| 20260506212704 | 60 | 8 | 4.0 | 9.0 | 0.00 | 0.21 | 0.21 | 46 | 1016.7 |
| 20260506212504 | 61 | 14 | 3.0 | 9.0 | 0.00 | 0.21 | 0.21 | 47 | 1016.7 |
| 20260506212404 | 61 | 9 | 3.0 | 9.0 | 0.00 | 0.21 | 0.21 | 46 | 1016.7 |
| 20260506212306 | 61 | 15 | 3.0 | 9.0 | 0.00 | 0.21 | 0.21 | 46 | 1016.7 |
| 20260506212204 | 61 | 30 | 3.0 | 9.0 | 0.00 | 0.21 | 0.21 | 45 | 1016.7 |
| 20260506212104 | 61 | 39 | 3.0 | 9.0 | 0.00 | 0.21 | 0.21 | 45 | 1016.7 |
| 20260506212004 | 61 | 45 | 3.0 | 9.0 | 0.00 | 0.21 | 0.21 | 44 | 1016.7 |
| 20260506211904 | 61 | 43 | 2.0 | 9.0 | 0.00 | 0.21 | 0.21 | 44 | 1016.8 |
| 20260506211804 | 62 | 39 | 2.0 | 9.0 | 0.00 | 0.21 | 0.21 | 45 | 1016.8 |
| 20260506211704 | 62 | 5 | 2.0 | 9.0 | 0.00 | 0.21 | 0.21 | 45 | 1016.8 |
| 20260506211604 | 61 | 357 | 2.0 | 6.0 | 0.00 | 0.21 | 0.21 | 43 | 1016.8 |
| 20260506211504 | 61 | 355 | 2.0 | 6.0 | 0.00 | 0.21 | 0.21 | 44 | 1016.7 |
| 20260506211404 | 61 | 359 | 2.0 | 6.0 | 0.00 | 0.21 | 0.21 | 43 | 1016.7 |
| 20260506211304 | 61 | 359 | 3.0 | 8.0 | 0.00 | 0.21 | 0.21 | 45 | 1016.8 |
| 20260506211204 | 61 | 8 | 3.0 | 8.0 | 0.00 | 0.21 | 0.21 | 43 | 1016.7 |
| 20260506211005 | 61 | 4 | 3.0 | 8.0 | 0.00 | 0.21 | 0.21 | 44 | 1016.7 |
| 20260506210904 | 61 | 19 | 3.0 | 8.0 | 0.00 | 0.21 | 0.21 | 44 | 1016.8 |
| 20260506210804 | 61 | 34 | 3.0 | 8.0 | 0.00 | 0.21 | 0.21 | 44 | 1016.8 |
| 20260506210704 | 61 | 58 | 3.0 | 8.0 | 0.00 | 0.21 | 0.21 | 44 | 1016.7 |
| 20260506210604 | 61 | 70 | 3.0 | 8.0 | 0.00 | 0.21 | 0.21 | 44 | 1016.8 |
| 20260506210504 | 61 | 80 | 3.0 | 8.0 | 0.00 | 0.21 | 0.21 | 46 | 1016.8 |
| 20260506210404 | 61 | 85 | 3.0 | 8.0 | 0.00 | 0.21 | 0.21 | 46 | 1016.8 |
| 20260506210304 | 61 | 88 | 3.0 | 9.0 | 0.00 | 0.21 | 0.21 | 45 | 1016.8 |
| 20260506210204 | 61 | 82 | 3.0 | 13.0 | 0.00 | 0.21 | 0.21 | 46 | 1016.9 |
| 20260506210004 | 61 | 82 | 3.0 | 13.0 | 0.00 | 0.21 | 0.21 | 45 | 1016.8 |
| 20260506205704 | 61 | 78 | 3.0 | 13.0 | 0.00 | 0.21 | 0.21 | 45 | 1016.8 |
| 20260506205504 | 61 | 74 | 2.0 | 13.0 | 0.00 | 0.21 | 0.21 | 44 | 1016.9 |
| 20260506205404 | 61 | 71 | 2.0 | 13.0 | 0.00 | 0.21 | 0.21 | 44 | 1016.9 |
| 20260506205306 | 62 | 71 | 2.0 | 13.0 | 0.00 | 0.21 | 0.21 | 45 | 1016.9 |
| 20260506205105 | 62 | 78 | 2.0 | 7.0 | 0.00 | 0.21 | 0.21 | 46 | 1016.9 |
| 20260506205004 | 61 | 72 | 2.0 | 7.0 | 0.00 | 0.21 | 0.21 | 45 | 1016.9 |
| 20260506204905 | 61 | 75 | 2.0 | 7.0 | 0.00 | 0.21 | 0.21 | 47 | 1016.9 |
| 20260506204705 | 61 | 77 | 2.0 | 7.0 | 0.00 | 0.21 | 0.21 | 44 | 1017.0 |
| 20260506204604 | 61 | 78 | 2.0 | 7.0 | 0.00 | 0.21 | 0.21 | 45 | 1017.1 |
| 20260506204404 | 60 | 82 | 3.0 | 8.0 | 0.00 | 0.21 | 0.21 | 45 | 1017.0 |
| 20260506204304 | 60 | 83 | 3.0 | 10.0 | 0.00 | 0.21 | 0.21 | 46 | 1017.1 |
| 20260506204204 | 60 | 86 | 4.0 | 13.0 | 0.00 | 0.21 | 0.21 | 46 | 1017.0 |
| 20260506204105 | 60 | 89 | 4.0 | 14.0 | 0.00 | 0.21 | 0.21 | 47 | 1017.1 |
| 20260506204004 | 60 | 91 | 4.0 | 14.0 | 0.00 | 0.21 | 0.21 | 47 | 1017.1 |
| 20260506203904 | 60 | 90 | 4.0 | 14.0 | 0.00 | 0.21 | 0.21 | 46 | 1017.1 |
| 20260506203804 | 60 | 89 | 3.0 | 14.0 | 0.00 | 0.21 | 0.21 | 46 | 1017.1 |
| 20260506203704 | 60 | 90 | 3.0 | 14.0 | 0.00 | 0.21 | 0.21 | 46 | 1017.2 |
| 20260506203604 | 60 | 88 | 3.0 | 14.0 | 0.00 | 0.21 | 0.21 | 45 | 1017.2 |
| 20260506203504 | 60 | 85 | 3.0 | 14.0 | 0.00 | 0.21 | 0.21 | 44 | 1017.2 |
| 20260506203404 | 60 | 78 | 3.0 | 14.0 | 0.00 | 0.21 | 0.21 | 45 | 1017.2 |
| 20260506203304 | 60 | 71 | 3.0 | 14.0 | 0.00 | 0.21 | 0.21 | 45 | 1017.2 |
| 20260506203104 | 60 | 14 | 3.0 | 8.0 | 0.00 | 0.21 | 0.21 | 47 | 1017.3 |
| 20260506203004 | 60 | 7 | 3.0 | 8.0 | 0.00 | 0.21 | 0.21 | 46 | 1017.3 |
| 20260506202904 | 60 | 358 | 3.0 | 8.0 | 0.00 | 0.21 | 0.21 | 46 | 1017.2 |
| 20260506202804 | 60 | 356 | 3.0 | 8.0 | 0.00 | 0.21 | 0.21 | 45 | 1017.2 |
| 20260506202704 | 60 | 3 | 3.0 | 8.0 | 0.00 | 0.21 | 0.21 | 46 | 1017.3 |
| 20260506202505 | 60 | 14 | 3.0 | 8.0 | 0.00 | 0.21 | 0.21 | 45 | 1017.3 |
| 20260506202404 | 60 | 19 | 3.0 | 8.0 | 0.00 | 0.21 | 0.21 | 46 | 1017.3 |
| 20260506202306 | 60 | 26 | 3.0 | 8.0 | 0.00 | 0.21 | 0.21 | 45 | 1017.4 |
| 20260506202204 | 60 | 36 | 3.0 | 8.0 | 0.00 | 0.21 | 0.21 | 47 | 1017.4 |
| 20260506202004 | 60 | 54 | 3.0 | 8.0 | 0.00 | 0.21 | 0.21 | 47 | 1017.4 |
| 20260506201804 | 59 | 56 | 3.0 | 8.0 | 0.00 | 0.21 | 0.21 | 48 | 1017.4 |
| 20260506201704 | 59 | 52 | 3.0 | 8.0 | 0.00 | 0.21 | 0.21 | 48 | 1017.3 |
| 20260506201604 | 59 | 60 | 3.0 | 8.0 | 0.00 | 0.21 | 0.21 | 47 | 1017.4 |
| 20260506201404 | 59 | 51 | 4.0 | 10.0 | 0.00 | 0.21 | 0.21 | 46 | 1017.5 |
| 20260506201204 | 59 | 31 | 4.0 | 10.0 | 0.00 | 0.21 | 0.21 | 47 | 1017.6 |
| 20260506201104 | 59 | 26 | 4.0 | 10.0 | 0.00 | 0.21 | 0.21 | 47 | 1017.6 |
| 20260506201004 | 59 | 29 | 4.0 | 10.0 | 0.00 | 0.21 | 0.21 | 47 | 1017.6 |
| 20260506200904 | 59 | 30 | 4.0 | 10.0 | 0.00 | 0.21 | 0.21 | 46 | 1017.6 |
| 20260506200704 | 60 | 21 | 3.0 | 10.0 | 0.00 | 0.21 | 0.21 | 46 | 1017.7 |
| 20260506200604 | 60 | 19 | 3.0 | 10.0 | 0.00 | 0.21 | 0.21 | 46 | 1017.7 |
| 20260506200504 | 60 | 14 | 2.0 | 8.0 | 0.00 | 0.21 | 0.21 | 47 | 1017.7 |
| 20260506200404 | 60 | 14 | 2.0 | 8.0 | 0.00 | 0.21 | 0.21 | 47 | 1017.7 |
| 20260506200304 | 60 | 20 | 2.0 | 8.0 | 0.00 | 0.21 | 0.21 | 46 | 1017.7 |
| 20260506200204 | 60 | 46 | 2.0 | 7.0 | 0.00 | 0.21 | 0.21 | 47 | 1017.7 |
| 20260506200004 | 60 | 87 | 2.0 | 10.0 | 0.00 | 0.21 | 0.21 | 50 | 1017.7 |
| 20260506195905 | 60 | 93 | 2.0 | 11.0 | 0.00 | 0.21 | 0.21 | 49 | 1017.7 |
| 20260506195805 | 59 | 100 | 2.0 | 11.0 | 0.00 | 0.21 | 0.21 | 49 | 1017.7 |
| 20260506195705 | 59 | 101 | 3.0 | 11.0 | 0.00 | 0.21 | 0.21 | 49 | 1017.6 |
| 20260506195605 | 59 | 102 | 3.0 | 11.0 | 0.00 | 0.21 | 0.21 | 47 | 1017.6 |
| 20260506195505 | 59 | 101 | 3.0 | 11.0 | 0.00 | 0.21 | 0.21 | 48 | 1017.8 |
| 20260506195405 | 59 | 100 | 3.0 | 11.0 | 0.00 | 0.21 | 0.21 | 49 | 1017.8 |
| 20260506195205 | 59 | 98 | 3.0 | 11.0 | 0.00 | 0.21 | 0.21 | 48 | 1017.8 |
| 20260506195105 | 59 | 97 | 3.0 | 11.0 | 0.00 | 0.21 | 0.21 | 47 | 1017.8 |
| 20260506195005 | 59 | 93 | 2.0 | 11.0 | 0.00 | 0.21 | 0.21 | 46 | 1017.8 |
| 20260506194905 | 59 | 91 | 2.0 | 7.0 | 0.00 | 0.21 | 0.21 | 48 | 1017.8 |
| 20260506194805 | 59 | 88 | 2.0 | 7.0 | 0.00 | 0.21 | 0.21 | 48 | 1017.7 |
| 20260506194705 | 59 | 84 | 2.0 | 7.0 | 0.00 | 0.21 | 0.21 | 47 | 1017.8 |
| 20260506194605 | 59 | 68 | 2.0 | 7.0 | 0.00 | 0.21 | 0.21 | 47 | 1017.8 |
| 20260506194505 | 59 | 57 | 2.0 | 5.0 | 0.00 | 0.21 | 0.21 | 46 | 1017.8 |
| 20260506194405 | 59 | 51 | 2.0 | 7.0 | 0.00 | 0.21 | 0.21 | 49 | 1017.9 |
| 20260506194305 | 59 | 53 | 2.0 | 7.0 | 0.00 | 0.21 | 0.21 | 46 | 1017.9 |
| 20260506194205 | 59 | 49 | 3.0 | 7.0 | 0.00 | 0.21 | 0.21 | 46 | 1017.9 |
| 20260506194105 | 59 | 48 | 3.0 | 7.0 | 0.00 | 0.21 | 0.21 | 45 | 1017.9 |
| 20260506193905 | 59 | 43 | 3.0 | 8.0 | 0.00 | 0.21 | 0.21 | 46 | 1018.0 |
| 20260506193704 | 59 | 33 | 3.0 | 9.0 | 0.00 | 0.21 | 0.21 | 45 | 1017.9 |
| 20260506193605 | 59 | 38 | 3.0 | 9.0 | 0.00 | 0.21 | 0.21 | 46 | 1018.0 |
| 20260506193505 | 59 | 42 | 3.0 | 9.0 | 0.00 | 0.21 | 0.21 | 47 | 1018.0 |
| 20260506193305 | 59 | 39 | 3.0 | 10.0 | 0.00 | 0.21 | 0.21 | 46 | 1018.0 |
| 20260506193205 | 59 | 35 | 3.0 | 10.0 | 0.00 | 0.21 | 0.21 | 47 | 1018.0 |
| 20260506193104 | 59 | 33 | 3.0 | 10.0 | 0.00 | 0.21 | 0.21 | 51 | 1018.1 |
| 20260506193004 | 59 | 33 | 3.0 | 10.0 | 0.00 | 0.21 | 0.21 | 47 | 1018.0 |
| 20260506192905 | 59 | 40 | 3.0 | 10.0 | 0.00 | 0.21 | 0.21 | 47 | 1018.1 |
| 20260506192805 | 59 | 48 | 3.0 | 10.0 | 0.00 | 0.21 | 0.21 | 46 | 1018.1 |
| 20260506192704 | 58 | 59 | 3.0 | 10.0 | 0.00 | 0.21 | 0.21 | 49 | 1018.0 |
| 20260506192604 | 58 | 52 | 3.0 | 10.0 | 0.00 | 0.21 | 0.21 | 46 | 1018.0 |
| 20260506192404 | 58 | 48 | 3.0 | 10.0 | 0.00 | 0.21 | 0.21 | 45 | 1018.0 |
| 20260506192306 | 58 | 57 | 3.0 | 8.0 | 0.00 | 0.21 | 0.21 | 45 | 1018.1 |
| 20260506192204 | 58 | 56 | 4.0 | 8.0 | 0.00 | 0.21 | 0.21 | 49 | 1018.1 |
| 20260506192004 | 58 | 35 | 4.0 | 12.0 | 0.00 | 0.21 | 0.21 | 47 | 1018.0 |
| 20260506191904 | 58 | 23 | 4.0 | 12.0 | 0.00 | 0.21 | 0.21 | 49 | 1018.0 |
| 20260506191805 | 58 | 14 | 4.0 | 12.0 | 0.00 | 0.21 | 0.21 | 47 | 1018.0 |
| 20260506191704 | 58 | 7 | 4.0 | 12.0 | 0.00 | 0.21 | 0.21 | 47 | 1018.0 |
| 20260506191604 | 58 | 9 | 4.0 | 12.0 | 0.00 | 0.21 | 0.21 | 49 | 1018.0 |
| 20260506191504 | 58 | 10 | 4.0 | 12.0 | 0.00 | 0.21 | 0.21 | 50 | 1017.9 |
| 20260506191404 | 58 | 4 | 4.0 | 12.0 | 0.00 | 0.21 | 0.21 | 49 | 1017.9 |
| 20260506191304 | 58 | 6 | 4.0 | 12.0 | 0.00 | 0.21 | 0.21 | 49 | 1017.9 |
| 20260506191205 | 58 | 14 | 4.0 | 12.0 | 0.00 | 0.21 | 0.21 | 49 | 1018.0 |
| 20260506191105 | 58 | 17 | 4.0 | 12.0 | 0.00 | 0.21 | 0.21 | 48 | 1018.0 |
| 20260506191005 | 58 | 17 | 4.0 | 11.0 | 0.00 | 0.21 | 0.21 | 48 | 1018.0 |
| 20260506190905 | 58 | 26 | 4.0 | 11.0 | 0.00 | 0.21 | 0.21 | 48 | 1018.0 |
| 20260506190705 | 58 | 43 | 4.0 | 15.0 | 0.00 | 0.21 | 0.21 | 48 | 1018.0 |
| 20260506190605 | 58 | 50 | 4.0 | 15.0 | 0.00 | 0.21 | 0.21 | 50 | 1018.0 |
| 20260506190505 | 58 | 46 | 4.0 | 15.0 | 0.00 | 0.21 | 0.21 | 48 | 1018.0 |
| 20260506190405 | 58 | 50 | 4.0 | 15.0 | 0.00 | 0.21 | 0.21 | 49 | 1017.9 |
| 20260506190305 | 58 | 50 | 4.0 | 15.0 | 0.00 | 0.21 | 0.21 | 51 | 1017.9 |
| 20260506190205 | 58 | 51 | 4.0 | 15.0 | 0.00 | 0.21 | 0.21 | 48 | 1017.9 |
| 20260506190105 | 58 | 57 | 4.0 | 15.0 | 0.00 | 0.21 | 0.21 | 48 | 1017.9 |
| 20260506190005 | 58 | 64 | 4.0 | 15.0 | 0.00 | 0.21 | 0.21 | 48 | 1017.8 |
| 20260506185905 | 58 | 64 | 4.0 | 15.0 | 0.00 | 0.21 | 0.21 | 47 | 1017.8 |
| 20260506185804 | 58 | 70 | 4.0 | 15.0 | 0.00 | 0.21 | 0.21 | 46 | 1017.9 |
| 20260506185705 | 58 | 70 | 4.0 | 11.0 | 0.00 | 0.21 | 0.21 | 46 | 1017.8 |
| 20260506185604 | 58 | 72 | 4.0 | 11.0 | 0.00 | 0.21 | 0.21 | 45 | 1017.8 |
| 20260506185504 | 58 | 80 | 4.0 | 11.0 | 0.00 | 0.21 | 0.21 | 47 | 1017.9 |
| 20260506185205 | 58 | 85 | 4.0 | 11.0 | 0.00 | 0.21 | 0.21 | 44 | 1017.8 |
| 20260506185104 | 57 | 86 | 4.0 | 12.0 | 0.00 | 0.21 | 0.21 | 48 | 1017.9 |
| 20260506185004 | 57 | 87 | 4.0 | 12.0 | 0.00 | 0.21 | 0.21 | 47 | 1017.8 |
| 20260506184905 | 57 | 84 | 3.0 | 12.0 | 0.00 | 0.21 | 0.21 | 48 | 1017.8 |
| 20260506184804 | 57 | 81 | 3.0 | 12.0 | 0.00 | 0.21 | 0.21 | 49 | 1017.8 |
| 20260506184704 | 57 | 78 | 3.0 | 12.0 | 0.00 | 0.21 | 0.21 | 48 | 1017.8 |
| 20260506184505 | 57 | 61 | 3.0 | 12.0 | 0.00 | 0.21 | 0.21 | 48 | 1017.9 |
| 20260506184404 | 57 | 55 | 4.0 | 12.0 | 0.00 | 0.21 | 0.21 | 48 | 1018.0 |
| 20260506184304 | 57 | 51 | 4.0 | 12.0 | 0.00 | 0.21 | 0.21 | 47 | 1017.9 |
| 20260506184204 | 57 | 50 | 4.0 | 12.0 | 0.00 | 0.21 | 0.21 | 49 | 1018.0 |
| 20260506184104 | 57 | 55 | 4.0 | 10.0 | 0.00 | 0.21 | 0.21 | 48 | 1017.9 |
| 20260506184004 | 57 | 60 | 4.0 | 10.0 | 0.00 | 0.21 | 0.21 | 47 | 1017.9 |
| 20260506183905 | 57 | 64 | 5.0 | 14.0 | 0.00 | 0.21 | 0.21 | 49 | 1017.9 |
| 20260506183804 | 57 | 66 | 5.0 | 14.0 | 0.00 | 0.21 | 0.21 | 46 | 1018.0 |
| 20260506183704 | 57 | 62 | 5.0 | 14.0 | 0.00 | 0.21 | 0.21 | 48 | 1018.0 |
| 20260506183604 | 57 | 63 | 5.0 | 14.0 | 0.00 | 0.21 | 0.21 | 47 | 1018.0 |
| 20260506183504 | 57 | 65 | 5.0 | 14.0 | 0.00 | 0.21 | 0.21 | 48 | 1017.9 |
| 20260506183404 | 57 | 63 | 4.0 | 14.0 | 0.00 | 0.21 | 0.21 | 48 | 1018.0 |
| 20260506183204 | 57 | 57 | 4.0 | 14.0 | 0.00 | 0.21 | 0.21 | 45 | 1017.9 |
| 20260506183104 | 57 | 48 | 4.0 | 14.0 | 0.00 | 0.21 | 0.21 | 46 | 1018.0 |
| 20260506183005 | 57 | 48 | 4.0 | 14.0 | 0.00 | 0.21 | 0.21 | 46 | 1018.0 |
| 20260506182904 | 57 | 40 | 3.0 | 11.0 | 0.00 | 0.21 | 0.21 | 47 | 1018.0 |
| 20260506182804 | 57 | 33 | 3.0 | 11.0 | 0.00 | 0.21 | 0.21 | 50 | 1018.0 |
| 20260506182705 | 57 | 36 | 3.0 | 11.0 | 0.00 | 0.21 | 0.21 | 50 | 1018.1 |
| 20260506182605 | 57 | 45 | 4.0 | 11.0 | 0.00 | 0.21 | 0.21 | 50 | 1018.1 |
| 20260506182404 | 57 | 30 | 4.0 | 11.0 | 0.00 | 0.21 | 0.21 | 50 | 1018.1 |
| 20260506182306 | 57 | 24 | 4.0 | 11.0 | 0.00 | 0.21 | 0.21 | 49 | 1018.1 |
| 20260506182205 | 57 | 32 | 4.0 | 11.0 | 0.00 | 0.21 | 0.21 | 50 | 1018.1 |
| 20260506182105 | 57 | 44 | 4.0 | 11.0 | 0.00 | 0.21 | 0.21 | 49 | 1018.1 |
| 20260506182005 | 57 | 38 | 4.0 | 11.0 | 0.00 | 0.21 | 0.21 | 49 | 1018.2 |
| 20260506181905 | 57 | 42 | 4.0 | 11.0 | 0.00 | 0.21 | 0.21 | 50 | 1018.2 |
| 20260506181805 | 57 | 35 | 4.0 | 11.0 | 0.00 | 0.21 | 0.21 | 50 | 1018.2 |
| 20260506181705 | 57 | 42 | 4.0 | 11.0 | 0.00 | 0.21 | 0.21 | 50 | 1018.1 |
| 20260506181604 | 57 | 40 | 5.0 | 11.0 | 0.00 | 0.21 | 0.21 | 49 | 1018.2 |
| 20260506181504 | 57 | 52 | 5.0 | 11.0 | 0.00 | 0.21 | 0.21 | 49 | 1018.2 |
| 20260506181404 | 57 | 59 | 5.0 | 11.0 | 0.00 | 0.21 | 0.21 | 50 | 1018.3 |
| 20260506181204 | 57 | 67 | 5.0 | 14.0 | 0.00 | 0.21 | 0.21 | 50 | 1018.4 |
| 20260506181104 | 56 | 70 | 6.0 | 14.0 | 0.00 | 0.21 | 0.21 | 50 | 1018.3 |
| 20260506181004 | 56 | 74 | 6.0 | 14.0 | 0.00 | 0.21 | 0.21 | 51 | 1018.4 |
| 20260506180904 | 56 | 76 | 5.0 | 14.0 | 0.00 | 0.21 | 0.21 | 50 | 1018.4 |
| 20260506180704 | 57 | 83 | 5.0 | 14.0 | 0.00 | 0.21 | 0.21 | 51 | 1018.4 |
| 20260506180604 | 56 | 79 | 5.0 | 14.0 | 0.00 | 0.21 | 0.21 | 51 | 1018.4 |
| 20260506180504 | 57 | 77 | 4.0 | 14.0 | 0.00 | 0.21 | 0.21 | 53 | 1018.4 |
| 20260506180404 | 57 | 80 | 4.0 | 14.0 | 0.00 | 0.21 | 0.21 | 52 | 1018.4 |
| 20260506180304 | 57 | 84 | 4.0 | 14.0 | 0.00 | 0.21 | 0.21 | 50 | 1018.4 |
| 20260506180104 | 57 | 76 | 3.0 | 10.0 | 0.00 | 0.21 | 0.21 | 51 | 1018.6 |
| 20260506175904 | 57 | 50 | 3.0 | 9.0 | 0.00 | 0.21 | 0.21 | 53 | 1018.5 |
| 20260506175804 | 57 | 46 | 3.0 | 9.0 | 0.00 | 0.21 | 0.21 | 52 | 1018.5 |
| 20260506175704 | 57 | 48 | 3.0 | 9.0 | 0.00 | 0.21 | 0.21 | 52 | 1018.5 |
| 20260506175604 | 57 | 59 | 3.0 | 9.0 | 0.00 | 0.21 | 0.21 | 52 | 1018.5 |
| 20260506175504 | 57 | 44 | 3.0 | 8.0 | 0.00 | 0.21 | 0.21 | 52 | 1018.5 |
| 20260506175404 | 57 | 32 | 3.0 | 8.0 | 0.00 | 0.21 | 0.21 | 53 | 1018.5 |
| 20260506175306 | 57 | 28 | 3.0 | 8.0 | 0.00 | 0.21 | 0.21 | 52 | 1018.5 |
| 20260506175204 | 57 | 31 | 4.0 | 10.0 | 0.00 | 0.21 | 0.21 | 51 | 1018.5 |
| 20260506175104 | 57 | 34 | 4.0 | 10.0 | 0.00 | 0.21 | 0.21 | 52 | 1018.5 |
| 20260506175005 | 57 | 34 | 4.0 | 11.0 | 0.00 | 0.21 | 0.21 | 53 | 1018.5 |
| 20260506174905 | 57 | 31 | 4.0 | 11.0 | 0.00 | 0.21 | 0.21 | 54 | 1018.5 |
| 20260506174804 | 57 | 30 | 4.0 | 11.0 | 0.00 | 0.21 | 0.21 | 55 | 1018.5 |
| 20260506174605 | 56 | 35 | 4.0 | 11.0 | 0.00 | 0.21 | 0.21 | 53 | 1018.5 |
| 20260506174504 | 56 | 38 | 4.0 | 11.0 | 0.00 | 0.21 | 0.21 | 51 | 1018.5 |
| 20260506174304 | 56 | 51 | 3.0 | 11.0 | 0.00 | 0.21 | 0.21 | 52 | 1018.6 |
| 20260506174204 | 57 | 49 | 3.0 | 11.0 | 0.00 | 0.21 | 0.21 | 53 | 1018.5 |
| 20260506174104 | 56 | 41 | 3.0 | 13.0 | 0.00 | 0.21 | 0.21 | 54 | 1018.5 |
| 20260506174004 | 56 | 42 | 4.0 | 13.0 | 0.00 | 0.21 | 0.21 | 57 | 1018.5 |
| 20260506173904 | 56 | 41 | 4.0 | 13.0 | 0.00 | 0.21 | 0.21 | 56 | 1018.5 |
| 20260506173804 | 56 | 34 | 4.0 | 13.0 | 0.00 | 0.21 | 0.21 | 55 | 1018.6 |
| 20260506173605 | 56 | 29 | 4.0 | 13.0 | 0.00 | 0.21 | 0.21 | 57 | 1018.6 |
| 20260506173504 | 56 | 23 | 4.0 | 13.0 | 0.00 | 0.21 | 0.21 | 58 | 1018.6 |
| 20260506173404 | 55 | 14 | 4.0 | 13.0 | 0.00 | 0.21 | 0.21 | 56 | 1018.6 |
| 20260506173304 | 55 | 9 | 4.0 | 13.0 | 0.00 | 0.21 | 0.21 | 56 | 1018.7 |
| 20260506173204 | 55 | 6 | 4.0 | 13.0 | 0.00 | 0.21 | 0.21 | 56 | 1018.7 |
| 20260506173104 | 55 | 5 | 4.0 | 13.0 | 0.00 | 0.21 | 0.21 | 56 | 1018.6 |
| 20260506173004 | 55 | 9 | 4.0 | 11.0 | 0.00 | 0.21 | 0.21 | 55 | 1018.7 |
| 20260506172904 | 55 | 12 | 4.0 | 11.0 | 0.00 | 0.21 | 0.21 | 56 | 1018.6 |
| 20260506172804 | 55 | 22 | 4.0 | 11.0 | 0.00 | 0.21 | 0.21 | 58 | 1018.7 |
| 20260506172704 | 55 | 21 | 4.0 | 11.0 | 0.00 | 0.21 | 0.21 | 57 | 1018.7 |
| 20260506172605 | 55 | 20 | 4.0 | 11.0 | 0.00 | 0.21 | 0.21 | 56 | 1018.7 |
| 20260506172405 | 55 | 36 | 3.0 | 11.0 | 0.00 | 0.21 | 0.21 | 59 | 1018.7 |
| 20260506172307 | 55 | 39 | 3.0 | 11.0 | 0.00 | 0.21 | 0.21 | 60 | 1018.8 |
| 20260506172105 | 55 | 53 | 3.0 | 7.0 | 0.00 | 0.21 | 0.21 | 59 | 1018.7 |
| 20260506172004 | 55 | 56 | 3.0 | 7.0 | 0.00 | 0.21 | 0.21 | 59 | 1018.7 |
| 20260506171805 | 55 | 52 | 3.0 | 7.0 | 0.00 | 0.21 | 0.21 | 61 | 1018.8 |
| 20260506171604 | 54 | 45 | 3.0 | 8.0 | 0.00 | 0.21 | 0.21 | 63 | 1018.8 |
| 20260506171504 | 54 | 57 | 3.0 | 9.0 | 0.00 | 0.21 | 0.21 | 62 | 1018.8 |
| 20260506171305 | 54 | 54 | 3.0 | 9.0 | 0.00 | 0.21 | 0.21 | 63 | 1018.9 |
| 20260506171205 | 54 | 55 | 3.0 | 9.0 | 0.00 | 0.21 | 0.21 | 63 | 1018.9 |
| 20260506171104 | 54 | 49 | 3.0 | 9.0 | 0.00 | 0.21 | 0.21 | 63 | 1018.9 |
| 20260506171005 | 54 | 47 | 4.0 | 9.0 | 0.00 | 0.21 | 0.21 | 63 | 1018.9 |
| 20260506170805 | 54 | 61 | 4.0 | 11.0 | 0.00 | 0.21 | 0.21 | 63 | 1018.7 |
| 20260506170604 | 54 | 68 | 3.0 | 11.0 | 0.00 | 0.21 | 0.21 | 64 | 1018.7 |
| 20260506170505 | 54 | 58 | 4.0 | 11.0 | 0.00 | 0.21 | 0.21 | 66 | 1018.7 |
| 20260506170304 | 53 | 57 | 3.0 | 11.0 | 0.00 | 0.21 | 0.21 | 66 | 1018.8 |
| 20260506170205 | 53 | 60 | 3.0 | 11.0 | 0.00 | 0.21 | 0.21 | 66 | 1018.7 |
| 20260506170004 | 54 | 57 | 3.0 | 11.0 | 0.00 | 0.21 | 0.21 | 65 | 1018.7 |
| 20260506165904 | 54 | 39 | 3.0 | 11.0 | 0.00 | 0.21 | 0.21 | 68 | 1018.7 |
| 20260506165804 | 54 | 10 | 3.0 | 9.0 | 0.00 | 0.21 | 0.21 | 68 | 1018.7 |
| 20260506165604 | 54 | 349 | 3.0 | 9.0 | 0.00 | 0.21 | 0.21 | 68 | 1018.7 |
| 20260506165504 | 53 | 356 | 3.0 | 9.0 | 0.00 | 0.21 | 0.21 | 69 | 1018.7 |
| 20260506165405 | 53 | 1 | 4.0 | 9.0 | 0.00 | 0.21 | 0.21 | 69 | 1018.7 |
| 20260506165306 | 53 | 8 | 4.0 | 9.0 | 0.00 | 0.21 | 0.21 | 68 | 1018.7 |
| 20260506165205 | 53 | 9 | 4.0 | 9.0 | 0.00 | 0.21 | 0.21 | 69 | 1018.7 |
| 20260506165105 | 53 | 2 | 4.0 | 9.0 | 0.00 | 0.21 | 0.21 | 68 | 1018.7 |
| 20260506164905 | 53 | 8 | 4.0 | 10.0 | 0.00 | 0.21 | 0.21 | 67 | 1018.7 |
| 20260506164805 | 53 | 14 | 4.0 | 10.0 | 0.00 | 0.21 | 0.21 | 67 | 1018.8 |
| 20260506164705 | 53 | 20 | 4.0 | 10.0 | 0.00 | 0.21 | 0.21 | 67 | 1018.8 |
| 20260506164604 | 53 | 30 | 4.0 | 10.0 | 0.00 | 0.22 | 0.21 | 67 | 1018.8 |
| 20260506164504 | 53 | 28 | 4.0 | 10.0 | 0.00 | 0.22 | 0.21 | 67 | 1018.8 |
| 20260506164305 | 53 | 31 | 4.0 | 10.0 | 0.00 | 0.22 | 0.21 | 68 | 1018.8 |
| 20260506164205 | 52 | 32 | 4.0 | 10.0 | 0.00 | 0.22 | 0.21 | 66 | 1018.8 |
| 20260506164105 | 52 | 34 | 4.0 | 10.0 | 0.00 | 0.22 | 0.21 | 66 | 1018.8 |
| 20260506164005 | 53 | 30 | 4.0 | 10.0 | 0.00 | 0.22 | 0.21 | 66 | 1018.8 |
| 20260506163905 | 53 | 30 | 4.0 | 12.0 | 0.00 | 0.22 | 0.21 | 65 | 1018.8 |
| 20260506163805 | 53 | 25 | 4.0 | 12.0 | 0.00 | 0.22 | 0.21 | 65 | 1018.8 |
| 20260506163605 | 52 | 16 | 4.0 | 12.0 | 0.00 | 0.22 | 0.21 | 67 | 1018.8 |
| 20260506163505 | 52 | 15 | 4.0 | 12.0 | 0.00 | 0.22 | 0.21 | 68 | 1018.8 |
| 20260506163405 | 52 | 9 | 4.0 | 12.0 | 0.00 | 0.22 | 0.21 | 67 | 1018.7 |
| 20260506163304 | 52 | 12 | 4.0 | 12.0 | 0.00 | 0.22 | 0.21 | 68 | 1018.7 |
| 20260506163205 | 52 | 7 | 4.0 | 12.0 | 0.00 | 0.22 | 0.21 | 68 | 1018.7 |
| 20260506163104 | 52 | 5 | 4.0 | 12.0 | 0.00 | 0.22 | 0.21 | 68 | 1018.7 |
| 20260506163005 | 53 | 7 | 4.0 | 12.0 | 0.00 | 0.22 | 0.21 | 70 | 1018.6 |
| 20260506162905 | 53 | 8 | 3.0 | 10.0 | 0.00 | 0.22 | 0.21 | 72 | 1018.6 |
| 20260506162705 | 52 | 13 | 3.0 | 10.0 | 0.00 | 0.22 | 0.21 | 72 | 1018.5 |
| 20260506162604 | 52 | 23 | 3.0 | 10.0 | 0.00 | 0.22 | 0.21 | 72 | 1018.5 |
| 20260506162504 | 52 | 30 | 3.0 | 10.0 | 0.00 | 0.22 | 0.21 | 72 | 1018.5 |
| 20260506162307 | 52 | 28 | 4.0 | 10.0 | 0.00 | 0.22 | 0.21 | 71 | 1018.4 |
| 20260506162204 | 52 | 19 | 4.0 | 13.0 | 0.00 | 0.22 | 0.21 | 71 | 1018.3 |
| 20260506162104 | 52 | 7 | 4.0 | 13.0 | 0.00 | 0.22 | 0.21 | 73 | 1018.2 |
| 20260506162004 | 52 | 1 | 4.0 | 13.0 | 0.00 | 0.22 | 0.21 | 74 | 1018.2 |
| 20260506161904 | 51 | 4 | 4.0 | 13.0 | 0.00 | 0.22 | 0.21 | 74 | 1018.3 |
| 20260506161705 | 51 | 357 | 5.0 | 13.0 | 0.00 | 0.22 | 0.21 | 74 | 1018.5 |
| 20260506161604 | 51 | 352 | 5.0 | 13.0 | 0.00 | 0.22 | 0.21 | 74 | 1018.5 |
| 20260506161505 | 50 | 346 | 5.0 | 13.0 | 0.00 | 0.22 | 0.21 | 75 | 1018.6 |
| 20260506161404 | 50 | 344 | 5.0 | 13.0 | 0.00 | 0.22 | 0.21 | 74 | 1018.5 |
| 20260506161304 | 50 | 345 | 5.0 | 13.0 | 0.00 | 0.22 | 0.21 | 74 | 1018.5 |
| 20260506161104 | 50 | 354 | 5.0 | 9.0 | 0.00 | 0.22 | 0.21 | 74 | 1018.5 |
| 20260506161004 | 50 | 355 | 4.0 | 9.0 | 0.00 | 0.22 | 0.21 | 73 | 1018.5 |
| 20260506160905 | 50 | 354 | 4.0 | 9.0 | 0.00 | 0.22 | 0.21 | 74 | 1018.6 |
| 20260506160804 | 50 | 353 | 4.0 | 9.0 | 0.00 | 0.22 | 0.21 | 74 | 1018.6 |
| 20260506160704 | 50 | 355 | 4.0 | 9.0 | 0.00 | 0.22 | 0.21 | 74 | 1018.7 |
| 20260506160604 | 50 | 357 | 4.0 | 9.0 | 0.00 | 0.22 | 0.21 | 74 | 1018.7 |
| 20260506160504 | 50 | 359 | 4.0 | 9.0 | 0.00 | 0.22 | 0.21 | 74 | 1018.7 |
| 20260506160404 | 50 | 359 | 4.0 | 9.0 | 0.00 | 0.22 | 0.21 | 74 | 1018.7 |
| 20260506160304 | 50 | 3 | 4.0 | 9.0 | 0.00 | 0.22 | 0.21 | 74 | 1018.7 |
| 20260506160204 | 50 | 3 | 4.0 | 9.0 | 0.00 | 0.22 | 0.21 | 74 | 1018.7 |
| 20260506160104 | 49 | 6 | 4.0 | 9.0 | 0.00 | 0.22 | 0.21 | 74 | 1018.7 |
| 20260506160004 | 49 | 359 | 4.0 | 10.0 | 0.00 | 0.22 | 0.21 | 74 | 1018.7 |
| 20260506155904 | 49 | 355 | 4.0 | 10.0 | 0.00 | 0.22 | 0.21 | 74 | 1018.7 |
| 20260506155804 | 49 | 350 | 4.0 | 10.0 | 0.00 | 0.22 | 0.21 | 74 | 1018.7 |
| 20260506155704 | 49 | 352 | 4.0 | 10.0 | 0.00 | 0.22 | 0.21 | 74 | 1018.8 |
| 20260506155604 | 49 | 350 | 3.0 | 10.0 | 0.00 | 0.22 | 0.21 | 74 | 1018.8 |
| 20260506155504 | 49 | 354 | 3.0 | 10.0 | 0.00 | 0.22 | 0.21 | 74 | 1018.8 |
| 20260506155404 | 49 | 357 | 3.0 | 10.0 | 0.00 | 0.22 | 0.21 | 74 | 1018.8 |
| 20260506155306 | 49 | 357 | 3.0 | 10.0 | 0.00 | 0.22 | 0.21 | 74 | 1018.8 |
| 20260506155204 | 49 | 1 | 3.0 | 10.0 | 0.00 | 0.22 | 0.21 | 74 | 1018.9 |
| 20260506155104 | 49 | 1 | 3.0 | 10.0 | 0.00 | 0.22 | 0.21 | 74 | 1018.8 |
| 20260506155004 | 49 | 16 | 3.0 | 8.0 | 0.00 | 0.22 | 0.21 | 74 | 1018.8 |
| 20260506154904 | 49 | 24 | 3.0 | 8.0 | 0.00 | 0.22 | 0.21 | 76 | 1018.8 |
| 20260506154704 | 49 | 25 | 3.0 | 8.0 | 0.00 | 0.22 | 0.21 | 75 | 1018.9 |
| 20260506154605 | 49 | 22 | 3.0 | 8.0 | 0.00 | 0.22 | 0.21 | 75 | 1018.9 |
| 20260506154504 | 49 | 19 | 3.0 | 8.0 | 0.00 | 0.22 | 0.21 | 75 | 1018.9 |
| 20260506154404 | 49 | 15 | 3.0 | 8.0 | 0.00 | 0.22 | 0.21 | 75 | 1018.9 |
| 20260506154304 | 49 | 7 | 3.0 | 8.0 | 0.00 | 0.22 | 0.21 | 76 | 1019.0 |
| 20260506154204 | 49 | 354 | 3.0 | 8.0 | 0.00 | 0.22 | 0.21 | 75 | 1019.0 |
| 20260506154104 | 49 | 349 | 3.0 | 8.0 | 0.00 | 0.22 | 0.21 | 76 | 1018.9 |
| 20260506154004 | 49 | 343 | 3.0 | 8.0 | 0.00 | 0.22 | 0.21 | 76 | 1019.0 |
| 20260506153904 | 49 | 338 | 3.0 | 8.0 | 0.00 | 0.22 | 0.21 | 76 | 1018.9 |
| 20260506153604 | 48 | 328 | 3.0 | 8.0 | 0.00 | 0.22 | 0.21 | 77 | 1018.9 |
| 20260506153404 | 48 | 330 | 3.0 | 8.0 | 0.00 | 0.22 | 0.21 | 76 | 1018.9 |
| 20260506153304 | 48 | 333 | 3.0 | 8.0 | 0.00 | 0.22 | 0.21 | 76 | 1018.8 |
| 20260506152804 | 48 | 3 | 2.0 | 8.0 | 0.00 | 0.22 | 0.21 | 77 | 1018.8 |
| 20260506152704 | 48 | 27 | 2.0 | 6.0 | 0.00 | 0.22 | 0.21 | 77 | 1018.7 |
| 20260506152504 | 48 | 28 | 3.0 | 7.0 | 0.00 | 0.22 | 0.21 | 77 | 1018.7 |
| 20260506152404 | 48 | 26 | 3.0 | 7.0 | 0.00 | 0.22 | 0.21 | 77 | 1018.7 |
| 20260506152306 | 48 | 23 | 3.0 | 7.0 | 0.00 | 0.22 | 0.21 | 77 | 1018.6 |
| 20260506152204 | 48 | 18 | 3.0 | 7.0 | 0.00 | 0.22 | 0.21 | 77 | 1018.5 |
| 20260506152104 | 48 | 20 | 3.0 | 7.0 | 0.00 | 0.22 | 0.21 | 77 | 1018.5 |
| 20260506152005 | 48 | 23 | 3.0 | 7.0 | 0.00 | 0.22 | 0.21 | 77 | 1018.5 |
| 20260506151905 | 48 | 25 | 3.0 | 7.0 | 0.00 | 0.22 | 0.21 | 76 | 1018.5 |
| 20260506151805 | 48 | 25 | 3.0 | 7.0 | 0.00 | 0.22 | 0.21 | 76 | 1018.5 |
| 20260506151704 | 48 | 24 | 2.0 | 7.0 | 0.00 | 0.22 | 0.21 | 76 | 1018.5 |
| 20260506151504 | 48 | 30 | 2.0 | 6.0 | 0.00 | 0.22 | 0.21 | 77 | 1018.5 |
| 20260506151405 | 48 | 29 | 2.0 | 6.0 | 0.00 | 0.22 | 0.21 | 77 | 1018.5 |
| 20260506151205 | 48 | 40 | 2.0 | 5.0 | 0.00 | 0.22 | 0.21 | 77 | 1018.5 |
| 20260506151105 | 48 | 40 | 2.0 | 5.0 | 0.00 | 0.22 | 0.21 | 77 | 1018.5 |
| 20260506151005 | 48 | 41 | 2.0 | 5.0 | 0.00 | 0.22 | 0.21 | 77 | 1018.5 |
| 20260506150904 | 48 | 34 | 2.0 | 5.0 | 0.00 | 0.22 | 0.21 | 78 | 1018.6 |
| 20260506150805 | 48 | 31 | 2.0 | 6.0 | 0.00 | 0.22 | 0.21 | 77 | 1018.6 |
| 20260506150704 | 48 | 29 | 2.0 | 6.0 | 0.00 | 0.22 | 0.21 | 77 | 1018.6 |
| 20260506150605 | 48 | 30 | 2.0 | 6.0 | 0.00 | 0.22 | 0.21 | 77 | 1018.6 |
| 20260506150505 | 48 | 27 | 2.0 | 6.0 | 0.00 | 0.22 | 0.21 | 77 | 1018.7 |
| 20260506150404 | 48 | 28 | 2.0 | 6.0 | 0.00 | 0.22 | 0.21 | 77 | 1018.6 |
| 20260506150305 | 48 | 29 | 2.0 | 6.0 | 0.00 | 0.22 | 0.21 | 78 | 1018.7 |
| 20260506150204 | 48 | 31 | 2.0 | 6.0 | 0.00 | 0.22 | 0.21 | 79 | 1018.7 |
| 20260506150104 | 48 | 28 | 2.0 | 6.0 | 0.00 | 0.22 | 0.21 | 78 | 1018.7 |
| 20260506150005 | 48 | 23 | 2.0 | 6.0 | 0.00 | 0.22 | 0.21 | 78 | 1018.7 |
| 20260506145904 | 48 | 28 | 2.0 | 6.0 | 0.00 | 0.22 | 0.21 | 79 | 1018.7 |
| 20260506145704 | 48 | 25 | 1.0 | 4.0 | 0.00 | 0.22 | 0.21 | 80 | 1018.7 |
| 20260506145605 | 48 | 19 | 1.0 | 4.0 | 0.00 | 0.22 | 0.21 | 80 | 1018.6 |
| 20260506145505 | 48 | 20 | 1.0 | 4.0 | 0.00 | 0.22 | 0.21 | 80 | 1018.7 |
| 20260506145404 | 48 | 20 | 1.0 | 4.0 | 0.00 | 0.22 | 0.21 | 80 | 1018.7 |
| 20260506145306 | 48 | 19 | 2.0 | 4.0 | 0.00 | 0.22 | 0.21 | 81 | 1018.7 |
| 20260506145204 | 48 | 15 | 2.0 | 6.0 | 0.00 | 0.22 | 0.21 | 81 | 1018.7 |
| 20260506145104 | 48 | 17 | 2.0 | 6.0 | 0.00 | 0.22 | 0.21 | 81 | 1018.8 |
| 20260506145004 | 48 | 20 | 2.0 | 6.0 | 0.00 | 0.22 | 0.21 | 81 | 1018.8 |
| 20260506144804 | 48 | 14 | 2.0 | 6.0 | 0.00 | 0.22 | 0.21 | 81 | 1018.7 |
| 20260506144704 | 48 | 15 | 2.0 | 6.0 | 0.00 | 0.22 | 0.21 | 81 | 1018.7 |
| 20260506144604 | 48 | 16 | 2.0 | 6.0 | 0.00 | 0.22 | 0.21 | 81 | 1018.7 |
| 20260506144504 | 48 | 11 | 2.0 | 6.0 | 0.00 | 0.22 | 0.21 | 81 | 1018.6 |
| 20260506144404 | 48 | 13 | 3.0 | 6.0 | 0.00 | 0.22 | 0.21 | 81 | 1018.6 |
| 20260506144304 | 48 | 13 | 2.0 | 6.0 | 0.00 | 0.22 | 0.21 | 81 | 1018.6 |
| 20260506144204 | 48 | 15 | 2.0 | 5.0 | 0.00 | 0.22 | 0.21 | 82 | 1018.5 |
| 20260506144104 | 48 | 11 | 2.0 | 5.0 | 0.00 | 0.22 | 0.21 | 82 | 1018.5 |
| 20260506143904 | 48 | 355 | 2.0 | 5.0 | 0.00 | 0.22 | 0.21 | 82 | 1018.4 |
| 20260506143804 | 48 | 354 | 2.0 | 5.0 | 0.00 | 0.22 | 0.21 | 82 | 1018.3 |
| 20260506143704 | 48 | 352 | 2.0 | 5.0 | 0.00 | 0.22 | 0.21 | 82 | 1018.3 |
| 20260506143604 | 48 | 355 | 2.0 | 5.0 | 0.00 | 0.22 | 0.21 | 82 | 1018.3 |
| 20260506143404 | 48 | 3 | 2.0 | 5.0 | 0.00 | 0.22 | 0.21 | 83 | 1018.2 |
| 20260506143304 | 48 | 8 | 2.0 | 5.0 | 0.00 | 0.22 | 0.21 | 84 | 1018.2 |
| 20260506143204 | 47 | 11 | 2.0 | 5.0 | 0.00 | 0.22 | 0.21 | 83 | 1018.2 |
| 20260506143104 | 47 | 14 | 2.0 | 5.0 | 0.00 | 0.22 | 0.21 | 84 | 1018.1 |
| 20260506142804 | 47 | 46 | 2.0 | 5.0 | 0.00 | 0.22 | 0.21 | 84 | 1017.9 |
| 20260506142704 | 47 | 53 | 2.0 | 5.0 | 0.00 | 0.22 | 0.21 | 84 | 1017.8 |
| 20260506142604 | 47 | 41 | 1.0 | 5.0 | 0.00 | 0.22 | 0.21 | 84 | 1017.7 |
| 20260506142504 | 47 | 43 | 1.0 | 5.0 | 0.00 | 0.22 | 0.21 | 84 | 1017.7 |
| 20260506142404 | 47 | 41 | 1.0 | 5.0 | 0.00 | 0.22 | 0.21 | 85 | 1017.7 |
| 20260506142306 | 47 | 38 | 1.0 | 5.0 | 0.00 | 0.22 | 0.21 | 86 | 1017.7 |
| 20260506142204 | 47 | 36 | 1.0 | 5.0 | 0.00 | 0.22 | 0.21 | 86 | 1017.8 |
| 20260506142104 | 47 | 35 | 1.0 | 5.0 | 0.00 | 0.22 | 0.21 | 85 | 1017.9 |
| 20260506142004 | 47 | 20 | 1.0 | 5.0 | 0.00 | 0.22 | 0.21 | 86 | 1018.0 |
| 20260506141904 | 47 | 14 | 1.0 | 5.0 | 0.00 | 0.22 | 0.21 | 86 | 1018.2 |
| 20260506141804 | 47 | 15 | 1.0 | 4.0 | 0.00 | 0.22 | 0.21 | 86 | 1018.3 |
| 20260506141704 | 47 | 20 | 1.0 | 4.0 | 0.00 | 0.22 | 0.21 | 87 | 1018.4 |
| 20260506141605 | 47 | 37 | 1.0 | 5.0 | 0.00 | 0.22 | 0.21 | 87 | 1018.5 |
| 20260506141505 | 47 | 33 | 1.0 | 5.0 | 0.00 | 0.22 | 0.21 | 87 | 1018.6 |
| 20260506141405 | 47 | 25 | 2.0 | 5.0 | 0.00 | 0.22 | 0.21 | 87 | 1018.6 |
| 20260506141204 | 47 | 7 | 2.0 | 5.0 | 0.00 | 0.22 | 0.21 | 87 | 1018.6 |
| 20260506141104 | 47 | 353 | 2.0 | 6.0 | 0.00 | 0.22 | 0.21 | 87 | 1018.6 |
| 20260506141005 | 47 | 348 | 2.0 | 6.0 | 0.00 | 0.22 | 0.21 | 87 | 1018.6 |
| 20260506140904 | 47 | 346 | 3.0 | 6.0 | 0.00 | 0.22 | 0.21 | 87 | 1018.7 |
| 20260506140804 | 47 | 340 | 3.0 | 6.0 | 0.00 | 0.22 | 0.21 | 87 | 1018.6 |
| 20260506140604 | 47 | 329 | 2.0 | 6.0 | 0.00 | 0.22 | 0.21 | 87 | 1018.5 |
| 20260506140504 | 47 | 329 | 2.0 | 6.0 | 0.00 | 0.22 | 0.21 | 87 | 1018.5 |
| 20260506140404 | 47 | 327 | 2.0 | 6.0 | 0.00 | 0.22 | 0.21 | 87 | 1018.5 |
| 20260506140304 | 47 | 327 | 2.0 | 6.0 | 0.00 | 0.22 | 0.21 | 87 | 1018.5 |
| 20260506140204 | 47 | 326 | 2.0 | 6.0 | 0.00 | 0.22 | 0.21 | 87 | 1018.6 |
| 20260506140105 | 47 | 329 | 2.0 | 5.0 | 0.00 | 0.22 | 0.21 | 87 | 1018.5 |
| 20260506135904 | 47 | 332 | 2.0 | 5.0 | 0.00 | 0.22 | 0.21 | 87 | 1018.6 |
| 20260506135704 | 47 | 348 | 2.0 | 5.0 | 0.00 | 0.22 | 0.21 | 87 | 1018.5 |
| 20260506135604 | 47 | 352 | 1.0 | 5.0 | 0.00 | 0.22 | 0.21 | 87 | 1018.5 |
| 20260506135504 | 47 | 354 | 1.0 | 5.0 | 0.00 | 0.22 | 0.21 | 87 | 1018.5 |
| 20260506135404 | 47 | 359 | 1.0 | 5.0 | 0.00 | 0.22 | 0.21 | 87 | 1018.5 |
| 20260506135306 | 47 | 3 | 1.0 | 5.0 | 0.00 | 0.22 | 0.21 | 87 | 1018.5 |
| 20260506135205 | 47 | 7 | 1.0 | 5.0 | 0.00 | 0.22 | 0.21 | 87 | 1018.5 |
| 20260506135104 | 47 | 359 | 2.0 | 5.0 | 0.00 | 0.22 | 0.21 | 87 | 1018.5 |
| 20260506135004 | 47 | 354 | 2.0 | 5.0 | 0.00 | 0.22 | 0.21 | 87 | 1018.5 |
| 20260506134904 | 47 | 355 | 2.0 | 5.0 | 0.00 | 0.22 | 0.21 | 87 | 1018.4 |
| 20260506134804 | 47 | 358 | 2.0 | 5.0 | 0.00 | 0.22 | 0.21 | 87 | 1018.4 |
| 20260506134705 | 47 | 353 | 2.0 | 5.0 | 0.00 | 0.22 | 0.21 | 87 | 1018.5 |
| 20260506134605 | 47 | 352 | 2.0 | 5.0 | 0.00 | 0.22 | 0.21 | 87 | 1018.4 |
| 20260506134505 | 47 | 355 | 2.0 | 5.0 | 0.00 | 0.22 | 0.21 | 87 | 1018.5 |
| 20260506134404 | 46 | 354 | 2.0 | 5.0 | 0.00 | 0.22 | 0.21 | 87 | 1018.5 |
| 20260506134305 | 46 | 358 | 2.0 | 5.0 | 0.00 | 0.22 | 0.21 | 87 | 1018.5 |
| 20260506134005 | 46 | 23 | 1.0 | 5.0 | 0.00 | 0.22 | 0.21 | 87 | 1018.3 |
| 20260506133905 | 46 | 38 | 1.0 | 4.0 | 0.00 | 0.22 | 0.21 | 88 | 1018.2 |
| 20260506133805 | 46 | 44 | 1.0 | 4.0 | 0.00 | 0.22 | 0.21 | 88 | 1018.1 |
| 20260506133705 | 46 | 49 | 1.0 | 4.0 | 0.00 | 0.22 | 0.21 | 88 | 1018.1 |
| 20260506133604 | 46 | 49 | 1.0 | 4.0 | 0.00 | 0.22 | 0.21 | 88 | 1018.1 |
| 20260506133505 | 46 | 52 | 1.0 | 4.0 | 0.00 | 0.22 | 0.21 | 88 | 1018.2 |
| 20260506133305 | 46 | 67 | 0.0 | 2.0 | 0.00 | 0.22 | 0.21 | 89 | 1018.2 |
| 20260506133204 | 46 | 68 | 0.0 | 2.0 | 0.00 | 0.22 | 0.21 | 89 | 1018.3 |
| 20260506133104 | 46 | 73 | 0.0 | 2.0 | 0.00 | 0.22 | 0.21 | 89 | 1018.3 |
| 20260506133005 | 46 | 74 | 0.0 | 2.0 | 0.00 | 0.22 | 0.21 | 89 | 1018.3 |
| 20260506132905 | 46 | 76 | 0.0 | 2.0 | 0.00 | 0.22 | 0.21 | 89 | 1018.4 |
| 20260506132804 | 46 | 78 | 0.0 | 2.0 | 0.00 | 0.22 | 0.21 | 89 | 1018.3 |
| 20260506132604 | 46 | 78 | 0.0 | 2.0 | 0.00 | 0.22 | 0.21 | 89 | 1018.3 |
| 20260506132405 | 46 | 61 | 0.0 | 1.0 | 0.00 | 0.22 | 0.21 | 90 | 1018.2 |
| 20260506132307 | 46 | 58 | 0.0 | 1.0 | 0.00 | 0.22 | 0.21 | 89 | 1018.2 |
| 20260506132204 | 46 | 58 | 0.0 | 1.0 | 0.00 | 0.22 | 0.21 | 89 | 1018.2 |
| 20260506132005 | 46 | 52 | 0.0 | 1.0 | 0.00 | 0.22 | 0.21 | 89 | 1018.3 |
| 20260506131804 | 46 | 53 | 0.0 | 2.0 | 0.00 | 0.22 | 0.21 | 89 | 1018.5 |
| 20260506131704 | 46 | 53 | 0.0 | 2.0 | 0.00 | 0.22 | 0.21 | 89 | 1018.5 |
| 20260506131605 | 46 | 55 | 0.0 | 2.0 | 0.00 | 0.22 | 0.21 | 89 | 1018.6 |
| 20260506131504 | 46 | 60 | 0.0 | 2.0 | 0.00 | 0.22 | 0.21 | 89 | 1018.6 |
| 20260506131405 | 46 | 62 | 0.0 | 2.0 | 0.00 | 0.22 | 0.21 | 89 | 1018.6 |
| 20260506131304 | 46 | 64 | 0.0 | 2.0 | 0.00 | 0.22 | 0.21 | 90 | 1018.6 |
| 20260506131105 | 46 | 65 | 0.0 | 2.0 | 0.00 | 0.22 | 0.21 | 90 | 1018.5 |
| 20260506131005 | 46 | 65 | 0.0 | 2.0 | 0.00 | 0.22 | 0.21 | 90 | 1018.5 |
| 20260506130905 | 46 | 73 | 0.0 | 2.0 | 0.00 | 0.22 | 0.21 | 90 | 1018.4 |
| 20260506130805 | 46 | 74 | 0.0 | 2.0 | 0.00 | 0.22 | 0.21 | 90 | 1018.4 |
| 20260506130705 | 46 | 68 | 0.0 | 2.0 | 0.00 | 0.22 | 0.21 | 90 | 1018.4 |
| 20260506130505 | 46 | 42 | 0.0 | 1.0 | 0.00 | 0.22 | 0.21 | 90 | 1018.3 |
| 20260506130405 | 46 | 42 | 0.0 | 1.0 | 0.00 | 0.22 | 0.21 | 90 | 1018.3 |
| 20260506130305 | 45 | 42 | 0.0 | 1.0 | 0.00 | 0.22 | 0.21 | 90 | 1018.3 |
| 20260506130205 | 46 | 42 | 0.0 | 1.0 | 0.00 | 0.22 | 0.21 | 90 | 1018.3 |
| 20260506130105 | 45 | 51 | 0.0 | 1.0 | 0.00 | 0.22 | 0.21 | 90 | 1018.2 |
| 20260506130005 | 45 | 56 | 0.0 | 1.0 | 0.00 | 0.22 | 0.21 | 90 | 1018.2 |
| 20260506125905 | 45 | 58 | 0.0 | 1.0 | 0.00 | 0.22 | 0.21 | 90 | 1018.2 |
| 20260506125704 | 45 | 60 | 0.0 | 1.0 | 0.00 | 0.22 | 0.21 | 90 | 1018.1 |
| 20260506125604 | 45 | 60 | 0.0 | 1.0 | 0.00 | 0.22 | 0.21 | 90 | 1018.1 |
| 20260506125504 | 45 | 61 | 0.0 | 1.0 | 0.00 | 0.22 | 0.21 | 90 | 1018.0 |
| 20260506125306 | 45 | 63 | 0.0 | 1.0 | 0.00 | 0.22 | 0.21 | 91 | 1017.9 |
| 20260506125204 | 45 | 67 | 0.0 | 1.0 | 0.00 | 0.22 | 0.21 | 91 | 1017.9 |
| 20260506125005 | 45 | 68 | 0.0 | 1.0 | 0.00 | 0.22 | 0.21 | 91 | 1017.7 |
| 20260506124904 | 45 | 68 | 0.0 | 1.0 | 0.00 | 0.22 | 0.21 | 91 | 1017.7 |
| 20260506124804 | 45 | 68 | 0.0 | 1.0 | 0.00 | 0.22 | 0.21 | 91 | 1017.6 |
| 20260506124705 | 45 | 68 | 0.0 | 1.0 | 0.00 | 0.22 | 0.21 | 91 | 1017.5 |
| 20260506124605 | 45 | 68 | 0.0 | 1.0 | 0.00 | 0.22 | 0.21 | 91 | 1017.5 |
| 20260506124505 | 45 | 68 | 0.0 | 1.0 | 0.00 | 0.22 | 0.21 | 91 | 1017.4 |
| 20260506124405 | 45 | 68 | 0.0 | 1.0 | 0.00 | 0.22 | 0.21 | 91 | 1017.4 |
| 20260506124305 | 45 | 68 | 0.0 | 1.0 | 0.00 | 0.22 | 0.21 | 91 | 1017.4 |
| 20260506124204 | 45 | 50 | 0.0 | 2.0 | 0.00 | 0.22 | 0.21 | 91 | 1017.4 |
| 20260506124104 | 45 | 48 | 0.0 | 2.0 | 0.00 | 0.22 | 0.21 | 91 | 1017.4 |
| 20260506124004 | 45 | 48 | 0.0 | 2.0 | 0.00 | 0.22 | 0.21 | 91 | 1017.4 |
| 20260506123904 | 45 | 48 | 0.0 | 2.0 | 0.00 | 0.22 | 0.21 | 91 | 1017.4 |
| 20260506123604 | 45 | 43 | 0.0 | 2.0 | 0.00 | 0.22 | 0.21 | 91 | 1017.5 |
| 20260506123505 | 45 | 43 | 0.0 | 2.0 | 0.00 | 0.22 | 0.21 | 91 | 1017.6 |
| 20260506123304 | 45 | 43 | 0.0 | 2.0 | 0.00 | 0.22 | 0.21 | 91 | 1017.7 |
| 20260506123204 | 45 | 68 | 0.0 | 1.0 | 0.00 | 0.22 | 0.21 | 91 | 1017.6 |
| 20260506123104 | 45 | 71 | 0.0 | 1.0 | 0.00 | 0.22 | 0.21 | 91 | 1017.6 |
| 20260506123004 | 45 | 71 | 0.0 | 1.0 | 0.00 | 0.22 | 0.21 | 91 | 1017.6 |
| 20260506122904 | 45 | 0 | 0.0 | 0.0 | 0.00 | 0.22 | 0.21 | 91 | 1017.7 |
| 20260506122604 | 45 | 0 | 0.0 | 0.0 | 0.00 | 0.22 | 0.21 | 91 | 1017.6 |
| 20260506122504 | 44 | 0 | 0.0 | 0.0 | 0.00 | 0.22 | 0.21 | 91 | 1017.6 |
| 20260506122404 | 44 | 71 | 0.0 | 1.0 | 0.00 | 0.22 | 0.21 | 91 | 1017.6 |
| 20260506122306 | 44 | 71 | 0.0 | 1.0 | 0.00 | 0.22 | 0.21 | 91 | 1017.6 |
| 20260506122204 | 44 | 71 | 0.0 | 1.0 | 0.00 | 0.22 | 0.21 | 91 | 1017.6 |
| 20260506122104 | 44 | 71 | 0.0 | 1.0 | 0.00 | 0.22 | 0.21 | 91 | 1017.5 |
| 20260506122005 | 44 | 71 | 0.0 | 1.0 | 0.00 | 0.22 | 0.21 | 91 | 1017.5 |
| 20260506121805 | 44 | 71 | 0.0 | 1.0 | 0.00 | 0.22 | 0.21 | 91 | 1017.5 |
| 20260506121704 | 44 | 71 | 0.0 | 1.0 | 0.00 | 0.22 | 0.21 | 91 | 1017.5 |
| 20260506121604 | 44 | 71 | 0.0 | 1.0 | 0.00 | 0.22 | 0.21 | 91 | 1017.5 |
| 20260506121504 | 44 | 71 | 0.0 | 1.0 | 0.00 | 0.22 | 0.21 | 91 | 1017.5 |
| 20260506121404 | 44 | 71 | 0.0 | 1.0 | 0.00 | 0.22 | 0.21 | 91 | 1017.5 |
| 20260506121304 | 44 | 71 | 0.0 | 1.0 | 0.00 | 0.22 | 0.21 | 91 | 1017.5 |
| 20260506121205 | 44 | 70 | 0.0 | 1.0 | 0.00 | 0.22 | 0.21 | 91 | 1017.4 |
| 20260506121005 | 44 | 69 | 0.0 | 1.0 | 0.00 | 0.22 | 0.21 | 91 | 1017.4 |
| 20260506120904 | 44 | 69 | 0.0 | 1.0 | 0.00 | 0.22 | 0.21 | 91 | 1017.4 |
| 20260506120805 | 44 | 40 | 0.0 | 3.0 | 0.00 | 0.22 | 0.21 | 91 | 1017.4 |
| 20260506120705 | 44 | 43 | 0.0 | 3.0 | 0.00 | 0.22 | 0.21 | 91 | 1017.3 |
| 20260506120505 | 44 | 51 | 0.0 | 3.0 | 0.00 | 0.22 | 0.21 | 91 | 1017.4 |
| 20260506120405 | 44 | 57 | 0.0 | 3.0 | 0.00 | 0.22 | 0.21 | 91 | 1017.4 |
| 20260506120305 | 44 | 53 | 0.0 | 3.0 | 0.00 | 0.22 | 0.21 | 91 | 1017.4 |
| 20260506120205 | 44 | 53 | 0.0 | 3.0 | 0.00 | 0.22 | 0.21 | 91 | 1017.4 |
| 20260506120105 | 44 | 52 | 0.0 | 3.0 | 0.00 | 0.22 | 0.21 | 91 | 1017.4 |
| 20260506120005 | 44 | 51 | 0.0 | 3.0 | 0.00 | 0.22 | 0.21 | 91 | 1017.3 |
| 20260506115905 | 44 | 50 | 0.0 | 3.0 | 0.00 | 0.22 | 0.21 | 91 | 1017.2 |
| 20260506115705 | 44 | 20 | 0.0 | 3.0 | 0.00 | 0.22 | 0.21 | 91 | 1017.1 |
| 20260506115605 | 44 | 356 | 0.0 | 3.0 | 0.00 | 0.22 | 0.21 | 91 | 1017.1 |
| 20260506115505 | 44 | 346 | 1.0 | 3.0 | 0.00 | 0.22 | 0.21 | 91 | 1017.1 |
| 20260506115405 | 44 | 334 | 0.0 | 3.0 | 0.00 | 0.22 | 0.21 | 91 | 1017.2 |
| 20260506115307 | 44 | 331 | 0.0 | 3.0 | 0.00 | 0.22 | 0.21 | 91 | 1017.2 |
| 20260506115205 | 44 | 338 | 1.0 | 3.0 | 0.00 | 0.22 | 0.21 | 90 | 1017.3 |
| 20260506115105 | 44 | 339 | 1.0 | 3.0 | 0.00 | 0.22 | 0.21 | 90 | 1017.3 |
| 20260506115005 | 44 | 346 | 1.0 | 3.0 | 0.00 | 0.22 | 0.21 | 90 | 1017.3 |
| 20260506114905 | 44 | 346 | 1.0 | 3.0 | 0.00 | 0.22 | 0.21 | 90 | 1017.3 |
| 20260506114705 | 44 | 5 | 1.0 | 3.0 | 0.00 | 0.22 | 0.21 | 90 | 1017.2 |
| 20260506114605 | 44 | 8 | 1.0 | 3.0 | 0.00 | 0.22 | 0.21 | 90 | 1017.3 |
| 20260506114504 | 44 | 15 | 1.0 | 3.0 | 0.00 | 0.22 | 0.21 | 90 | 1017.2 |
| 20260506114404 | 44 | 17 | 1.0 | 3.0 | 0.00 | 0.22 | 0.21 | 90 | 1017.1 |
| 20260506114204 | 44 | 33 | 1.0 | 3.0 | 0.00 | 0.22 | 0.21 | 90 | 1017.1 |
| 20260506114105 | 44 | 39 | 1.0 | 3.0 | 0.00 | 0.22 | 0.21 | 90 | 1017.0 |
| 20260506113905 | 44 | 40 | 1.0 | 3.0 | 0.00 | 0.22 | 0.21 | 90 | 1017.0 |
| 20260506113804 | 44 | 41 | 1.0 | 3.0 | 0.00 | 0.22 | 0.21 | 90 | 1016.9 |
| 20260506113704 | 44 | 41 | 1.0 | 3.0 | 0.00 | 0.22 | 0.21 | 90 | 1016.8 |
| 20260506113605 | 44 | 46 | 1.0 | 3.0 | 0.00 | 0.22 | 0.21 | 90 | 1016.8 |
| 20260506113504 | 44 | 47 | 1.0 | 4.0 | 0.00 | 0.22 | 0.21 | 90 | 1016.7 |
| 20260506113405 | 44 | 47 | 1.0 | 4.0 | 0.00 | 0.22 | 0.21 | 90 | 1016.6 |
| 20260506113205 | 44 | 45 | 1.0 | 4.0 | 0.00 | 0.22 | 0.21 | 90 | 1016.5 |
| 20260506113104 | 44 | 43 | 1.0 | 4.0 | 0.00 | 0.22 | 0.21 | 90 | 1016.5 |
| 20260506113005 | 44 | 43 | 1.0 | 4.0 | 0.00 | 0.22 | 0.21 | 90 | 1016.5 |
| 20260506112905 | 44 | 44 | 1.0 | 4.0 | 0.00 | 0.22 | 0.21 | 90 | 1016.5 |
| 20260506112704 | 44 | 38 | 1.0 | 4.0 | 0.00 | 0.22 | 0.21 | 90 | 1016.5 |
| 20260506112604 | 44 | 40 | 1.0 | 4.0 | 0.00 | 0.22 | 0.21 | 90 | 1016.5 |
| 20260506112504 | 44 | 37 | 1.0 | 3.0 | 0.00 | 0.22 | 0.21 | 90 | 1016.4 |
| 20260506112404 | 44 | 34 | 1.0 | 3.0 | 0.00 | 0.22 | 0.21 | 90 | 1016.5 |
| 20260506112105 | 44 | 25 | 1.0 | 4.0 | 0.00 | 0.22 | 0.21 | 89 | 1016.5 |
| 20260506111905 | 44 | 19 | 1.0 | 4.0 | 0.00 | 0.22 | 0.21 | 89 | 1016.6 |
| 20260506111805 | 44 | 20 | 1.0 | 4.0 | 0.00 | 0.22 | 0.21 | 89 | 1016.6 |
| 20260506111705 | 44 | 26 | 1.0 | 4.0 | 0.00 | 0.22 | 0.21 | 89 | 1016.5 |
| 20260506111604 | 44 | 28 | 1.0 | 5.0 | 0.00 | 0.22 | 0.21 | 89 | 1016.6 |
| 20260506111505 | 44 | 30 | 1.0 | 5.0 | 0.00 | 0.22 | 0.21 | 89 | 1016.5 |
| 20260506111405 | 44 | 32 | 1.0 | 5.0 | 0.00 | 0.22 | 0.21 | 89 | 1016.4 |
| 20260506111205 | 44 | 39 | 1.0 | 5.0 | 0.00 | 0.22 | 0.21 | 89 | 1016.2 |
| 20260506111105 | 44 | 37 | 1.0 | 5.0 | 0.00 | 0.22 | 0.21 | 89 | 1016.2 |
| 20260506111005 | 44 | 39 | 1.0 | 5.0 | 0.00 | 0.22 | 0.21 | 89 | 1016.1 |
| 20260506110904 | 44 | 50 | 1.0 | 5.0 | 0.00 | 0.22 | 0.21 | 89 | 1016.1 |
| 20260506110804 | 44 | 54 | 1.0 | 5.0 | 0.00 | 0.22 | 0.21 | 89 | 1016.1 |
| 20260506110705 | 44 | 59 | 1.0 | 5.0 | 0.00 | 0.22 | 0.21 | 89 | 1016.0 |
| 20260506110504 | 44 | 67 | 0.0 | 3.0 | 0.00 | 0.22 | 0.21 | 89 | 1016.0 |
| 20260506110405 | 44 | 75 | 0.0 | 2.0 | 0.00 | 0.22 | 0.21 | 89 | 1016.0 |
| 20260506110305 | 44 | 75 | 0.0 | 2.0 | 0.00 | 0.22 | 0.21 | 89 | 1016.1 |
| 20260506110204 | 44 | 75 | 0.0 | 2.0 | 0.00 | 0.22 | 0.21 | 89 | 1016.1 |
| 20260506110104 | 44 | 75 | 0.0 | 2.0 | 0.00 | 0.22 | 0.21 | 89 | 1016.2 |
| 20260506110004 | 44 | 75 | 0.0 | 2.0 | 0.00 | 0.22 | 0.21 | 89 | 1016.3 |
| 20260506105904 | 44 | 75 | 0.0 | 2.0 | 0.00 | 0.22 | 0.21 | 89 | 1016.4 |
| 20260506105804 | 44 | 82 | 0.0 | 2.0 | 0.00 | 0.22 | 0.21 | 89 | 1016.4 |
| 20260506105604 | 44 | 95 | 0.0 | 2.0 | 0.00 | 0.22 | 0.21 | 89 | 1016.3 |
| 20260506105404 | 44 | 92 | 0.0 | 2.0 | 0.00 | 0.22 | 0.21 | 89 | 1016.3 |
| 20260506105204 | 44 | 89 | 0.0 | 3.0 | 0.00 | 0.22 | 0.21 | 89 | 1016.2 |
| 20260506105005 | 44 | 90 | 0.0 | 3.0 | 0.00 | 0.22 | 0.21 | 89 | 1016.1 |
| 20260506104905 | 44 | 90 | 0.0 | 3.0 | 0.00 | 0.22 | 0.21 | 89 | 1016.0 |
| 20260506104805 | 44 | 89 | 0.0 | 3.0 | 0.00 | 0.22 | 0.21 | 89 | 1016.0 |
| 20260506104704 | 44 | 89 | 0.0 | 3.0 | 0.00 | 0.22 | 0.21 | 89 | 1015.9 |
| 20260506104604 | 44 | 85 | 0.0 | 3.0 | 0.00 | 0.22 | 0.21 | 89 | 1016.0 |
| 20260506104505 | 44 | 88 | 0.0 | 3.0 | 0.00 | 0.22 | 0.21 | 89 | 1016.1 |
| 20260506104405 | 44 | 89 | 0.0 | 3.0 | 0.00 | 0.22 | 0.21 | 89 | 1016.1 |
| 20260506104304 | 44 | 89 | 0.0 | 3.0 | 0.00 | 0.22 | 0.21 | 89 | 1016.1 |
| 20260506104204 | 44 | 91 | 0.0 | 1.0 | 0.00 | 0.22 | 0.21 | 89 | 1016.1 |
| 20260506104105 | 44 | 91 | 0.0 | 1.0 | 0.00 | 0.22 | 0.21 | 89 | 1016.1 |
| 20260506104005 | 44 | 85 | 0.0 | 1.0 | 0.00 | 0.22 | 0.21 | 89 | 1016.0 |
| 20260506103904 | 44 | 85 | 0.0 | 1.0 | 0.00 | 0.22 | 0.21 | 89 | 1016.0 |
| 20260506103804 | 44 | 63 | 0.0 | 2.0 | 0.00 | 0.22 | 0.21 | 89 | 1016.0 |
| 20260506103704 | 44 | 57 | 0.0 | 2.0 | 0.00 | 0.22 | 0.21 | 89 | 1016.1 |
| 20260506103604 | 44 | 11 | 0.0 | 3.0 | 0.00 | 0.22 | 0.21 | 89 | 1016.1 |
| 20260506103504 | 44 | 6 | 0.0 | 3.0 | 0.00 | 0.22 | 0.21 | 89 | 1016.2 |
| 20260506103404 | 44 | 354 | 0.0 | 3.0 | 0.00 | 0.22 | 0.21 | 89 | 1016.2 |
| 20260506103304 | 44 | 357 | 0.0 | 3.0 | 0.00 | 0.22 | 0.21 | 89 | 1016.2 |
| 20260506103204 | 44 | 356 | 0.0 | 3.0 | 0.00 | 0.22 | 0.21 | 89 | 1016.2 |
| 20260506103104 | 44 | 14 | 0.0 | 3.0 | 0.00 | 0.22 | 0.21 | 89 | 1016.2 |
| 20260506103004 | 44 | 21 | 0.0 | 3.0 | 0.00 | 0.22 | 0.21 | 89 | 1016.1 |
| 20260506102904 | 44 | 25 | 0.0 | 3.0 | 0.00 | 0.22 | 0.21 | 89 | 1016.1 |
| 20260506102804 | 44 | 57 | 0.0 | 4.0 | 0.00 | 0.22 | 0.21 | 89 | 1016.1 |
| 20260506102704 | 44 | 61 | 0.0 | 4.0 | 0.00 | 0.22 | 0.21 | 89 | 1016.0 |
| 20260506102604 | 44 | 84 | 0.0 | 4.0 | 0.00 | 0.22 | 0.21 | 89 | 1015.8 |
| 20260506102504 | 44 | 87 | 0.0 | 4.0 | 0.00 | 0.22 | 0.21 | 89 | 1015.7 |
| 20260506102404 | 44 | 88 | 1.0 | 4.0 | 0.00 | 0.22 | 0.21 | 89 | 1015.7 |
| 20260506102305 | 44 | 87 | 1.0 | 4.0 | 0.00 | 0.22 | 0.21 | 89 | 1015.7 |
| 20260506102204 | 44 | 85 | 1.0 | 4.0 | 0.00 | 0.22 | 0.21 | 89 | 1015.7 |
| 20260506102104 | 44 | 87 | 1.0 | 4.0 | 0.00 | 0.22 | 0.21 | 89 | 1015.7 |
| 20260506102005 | 44 | 87 | 1.0 | 4.0 | 0.00 | 0.22 | 0.21 | 89 | 1015.6 |
| 20260506101905 | 44 | 88 | 1.0 | 4.0 | 0.00 | 0.22 | 0.21 | 89 | 1015.6 |
| 20260506101805 | 44 | 88 | 1.0 | 4.0 | 0.00 | 0.22 | 0.21 | 90 | 1015.6 |
| 20260506101705 | 44 | 87 | 1.0 | 5.0 | 0.00 | 0.22 | 0.21 | 89 | 1015.6 |
| 20260506101605 | 44 | 87 | 1.0 | 5.0 | 0.00 | 0.22 | 0.21 | 90 | 1015.6 |
| 20260506101505 | 44 | 87 | 1.0 | 5.0 | 0.00 | 0.22 | 0.21 | 90 | 1015.7 |
| 20260506101405 | 44 | 84 | 1.0 | 5.0 | 0.00 | 0.22 | 0.21 | 90 | 1015.7 |
| 20260506101305 | 44 | 73 | 1.0 | 5.0 | 0.00 | 0.22 | 0.21 | 90 | 1015.9 |
| 20260506101105 | 44 | 73 | 1.0 | 5.0 | 0.00 | 0.22 | 0.21 | 90 | 1015.9 |
| 20260506101005 | 44 | 74 | 1.0 | 5.0 | 0.00 | 0.22 | 0.21 | 90 | 1015.9 |
| 20260506100805 | 44 | 65 | 1.0 | 5.0 | 0.00 | 0.22 | 0.21 | 90 | 1016.1 |
| 20260506100705 | 44 | 48 | 1.0 | 3.0 | 0.00 | 0.22 | 0.21 | 90 | 1016.1 |
| 20260506100604 | 44 | 55 | 1.0 | 3.0 | 0.00 | 0.22 | 0.21 | 90 | 1016.2 |
| 20260506100504 | 44 | 60 | 1.0 | 3.0 | 0.00 | 0.22 | 0.21 | 90 | 1016.2 |
| 20260506100204 | 44 | 80 | 1.0 | 3.0 | 0.00 | 0.22 | 0.21 | 90 | 1016.1 |
| 20260506100104 | 44 | 80 | 1.0 | 5.0 | 0.00 | 0.22 | 0.21 | 90 | 1016.0 |
| 20260506100005 | 44 | 79 | 1.0 | 5.0 | 0.00 | 0.22 | 0.21 | 90 | 1015.9 |
| 20260506095904 | 44 | 83 | 1.0 | 5.0 | 0.00 | 0.22 | 0.21 | 90 | 1015.9 |
| 20260506095804 | 44 | 85 | 1.0 | 5.0 | 0.00 | 0.22 | 0.21 | 90 | 1015.9 |
| 20260506095605 | 44 | 89 | 1.0 | 5.0 | 0.00 | 0.22 | 0.21 | 90 | 1015.6 |
| 20260506095505 | 44 | 78 | 1.0 | 5.0 | 0.00 | 0.22 | 0.21 | 90 | 1015.6 |
| 20260506095404 | 44 | 72 | 1.0 | 5.0 | 0.00 | 0.22 | 0.21 | 90 | 1015.6 |
| 20260506095306 | 44 | 61 | 1.0 | 5.0 | 0.00 | 0.22 | 0.21 | 90 | 1015.6 |
| 20260506095204 | 44 | 48 | 1.0 | 5.0 | 0.00 | 0.22 | 0.21 | 90 | 1015.6 |
| 20260506095104 | 44 | 25 | 1.0 | 4.0 | 0.00 | 0.22 | 0.21 | 90 | 1015.7 |
| 20260506095004 | 44 | 19 | 1.0 | 4.0 | 0.00 | 0.22 | 0.21 | 90 | 1015.8 |
| 20260506094904 | 44 | 12 | 1.0 | 4.0 | 0.00 | 0.22 | 0.21 | 90 | 1016.0 |
| 20260506094804 | 44 | 16 | 1.0 | 4.0 | 0.00 | 0.22 | 0.21 | 90 | 1016.1 |
| 20260506094704 | 44 | 9 | 1.0 | 4.0 | 0.00 | 0.22 | 0.21 | 90 | 1016.2 |
| 20260506094604 | 44 | 9 | 1.0 | 4.0 | 0.00 | 0.22 | 0.21 | 90 | 1016.3 |
| 20260506094504 | 44 | 11 | 1.0 | 4.0 | 0.00 | 0.22 | 0.21 | 90 | 1016.2 |
| 20260506094405 | 44 | 14 | 1.0 | 4.0 | 0.00 | 0.22 | 0.21 | 90 | 1016.2 |
| 20260506094305 | 44 | 20 | 1.0 | 4.0 | 0.00 | 0.22 | 0.21 | 90 | 1016.1 |
| 20260506094205 | 44 | 26 | 1.0 | 4.0 | 0.00 | 0.22 | 0.21 | 90 | 1016.1 |
| 20260506094104 | 44 | 33 | 1.0 | 4.0 | 0.00 | 0.22 | 0.21 | 90 | 1016.0 |
| 20260506094004 | 44 | 39 | 1.0 | 4.0 | 0.00 | 0.22 | 0.21 | 90 | 1015.9 |
| 20260506093904 | 44 | 48 | 1.0 | 4.0 | 0.00 | 0.22 | 0.21 | 90 | 1016.0 |
| 20260506093705 | 44 | 70 | 1.0 | 4.0 | 0.00 | 0.22 | 0.21 | 90 | 1015.9 |
| 20260506093505 | 44 | 91 | 0.0 | 4.0 | 0.00 | 0.22 | 0.21 | 90 | 1015.8 |
| 20260506093304 | 44 | 89 | 1.0 | 4.0 | 0.00 | 0.22 | 0.21 | 90 | 1015.7 |
| 20260506093205 | 44 | 69 | 1.0 | 4.0 | 0.00 | 0.22 | 0.21 | 90 | 1015.7 |
| 20260506093104 | 44 | 60 | 1.0 | 4.0 | 0.00 | 0.22 | 0.21 | 90 | 1015.7 |
| 20260506093004 | 44 | 60 | 1.0 | 4.0 | 0.00 | 0.22 | 0.21 | 90 | 1015.7 |
| 20260506092904 | 44 | 48 | 1.0 | 4.0 | 0.00 | 0.22 | 0.21 | 90 | 1015.7 |
| 20260506092804 | 44 | 45 | 0.0 | 4.0 | 0.00 | 0.22 | 0.21 | 90 | 1015.8 |
| 20260506092705 | 44 | 37 | 0.0 | 4.0 | 0.01 | 0.22 | 0.21 | 90 | 1015.9 |
| 20260506092604 | 44 | 47 | 1.0 | 5.0 | 0.01 | 0.22 | 0.21 | 90 | 1016.0 |
| 20260506092405 | 44 | 48 | 1.0 | 5.0 | 0.01 | 0.22 | 0.21 | 90 | 1016.2 |
| 20260506092306 | 44 | 50 | 1.0 | 5.0 | 0.01 | 0.22 | 0.21 | 90 | 1016.2 |
| 20260506092204 | 44 | 49 | 1.0 | 5.0 | 0.01 | 0.22 | 0.21 | 90 | 1016.1 |
| 20260506092104 | 44 | 56 | 1.0 | 5.0 | 0.01 | 0.22 | 0.21 | 90 | 1016.0 |
| 20260506092004 | 44 | 57 | 1.0 | 5.0 | 0.01 | 0.22 | 0.21 | 90 | 1015.9 |
| 20260506091904 | 44 | 69 | 1.0 | 5.0 | 0.01 | 0.22 | 0.21 | 90 | 1015.9 |
| 20260506091704 | 44 | 70 | 1.0 | 5.0 | 0.01 | 0.22 | 0.21 | 90 | 1015.9 |
| 20260506091604 | 44 | 67 | 0.0 | 3.0 | 0.01 | 0.22 | 0.21 | 90 | 1016.0 |
| 20260506091505 | 44 | 67 | 0.0 | 3.0 | 0.01 | 0.22 | 0.21 | 90 | 1016.0 |
| 20260506091404 | 44 | 61 | 0.0 | 3.0 | 0.01 | 0.22 | 0.21 | 90 | 1016.0 |
| 20260506091205 | 44 | 90 | 0.0 | 7.0 | 0.02 | 0.22 | 0.21 | 90 | 1016.0 |
| 20260506091104 | 44 | 90 | 1.0 | 7.0 | 0.02 | 0.22 | 0.21 | 90 | 1016.1 |
| 20260506091004 | 44 | 90 | 1.0 | 7.0 | 0.02 | 0.22 | 0.21 | 90 | 1016.1 |
| 20260506090904 | 44 | 90 | 1.0 | 7.0 | 0.02 | 0.22 | 0.21 | 90 | 1016.2 |
| 20260506090504 | 44 | 92 | 1.0 | 7.0 | 0.02 | 0.22 | 0.21 | 90 | 1016.1 |
| 20260506090304 | 44 | 91 | 0.0 | 7.0 | 0.02 | 0.22 | 0.21 | 90 | 1016.0 |
| 20260506090204 | 44 | 94 | 0.0 | 3.0 | 0.02 | 0.22 | 0.21 | 90 | 1015.9 |
| 20260506090004 | 44 | 89 | 0.0 | 3.0 | 0.03 | 0.22 | 0.21 | 91 | 1016.0 |
| 20260506085904 | 44 | 89 | 0.0 | 3.0 | 0.03 | 0.22 | 0.21 | 91 | 1016.0 |
| 20260506085805 | 44 | 86 | 0.0 | 3.0 | 0.03 | 0.22 | 0.21 | 91 | 1016.0 |
| 20260506085704 | 44 | 74 | 0.0 | 2.0 | 0.03 | 0.22 | 0.21 | 91 | 1016.2 |
| 20260506085604 | 44 | 69 | 0.0 | 2.0 | 0.03 | 0.22 | 0.21 | 91 | 1016.3 |
| 20260506085504 | 44 | 65 | 0.0 | 2.0 | 0.03 | 0.22 | 0.21 | 91 | 1016.4 |
| 20260506085404 | 44 | 64 | 0.0 | 3.0 | 0.03 | 0.22 | 0.21 | 91 | 1016.5 |
| 20260506085306 | 44 | 71 | 1.0 | 3.0 | 0.03 | 0.22 | 0.21 | 91 | 1016.5 |
| 20260506085204 | 44 | 73 | 1.0 | 3.0 | 0.03 | 0.22 | 0.21 | 91 | 1016.6 |
| 20260506085104 | 44 | 72 | 1.0 | 3.0 | 0.03 | 0.22 | 0.21 | 91 | 1016.5 |
| 20260506085004 | 44 | 61 | 1.0 | 3.0 | 0.03 | 0.22 | 0.21 | 91 | 1016.6 |
| 20260506084904 | 44 | 59 | 1.0 | 3.0 | 0.03 | 0.22 | 0.21 | 91 | 1016.4 |
| 20260506084804 | 44 | 56 | 1.0 | 3.0 | 0.03 | 0.22 | 0.21 | 91 | 1016.2 |
| 20260506084704 | 44 | 33 | 1.0 | 6.0 | 0.03 | 0.22 | 0.21 | 91 | 1016.2 |
| 20260506084604 | 44 | 23 | 1.0 | 6.0 | 0.03 | 0.22 | 0.21 | 91 | 1016.1 |
| 20260506084504 | 44 | 22 | 1.0 | 6.0 | 0.03 | 0.22 | 0.21 | 91 | 1016.1 |
| 20260506084404 | 44 | 11 | 1.0 | 6.0 | 0.03 | 0.22 | 0.21 | 91 | 1016.1 |
| 20260506084304 | 44 | 6 | 1.0 | 6.0 | 0.03 | 0.22 | 0.21 | 91 | 1016.2 |
| 20260506084105 | 44 | 4 | 2.0 | 6.0 | 0.04 | 0.22 | 0.21 | 91 | 1016.4 |